GFSCGP_925_thetae_078.txt.gz
Theta_e
312 313 315 315 314 312 312 313 315 312 312 315 314 313 313 316 323 323 325 327 326 326 323 322 322 320 319 321 321 321 320 319 319 320 321 321 320 321 320 317 314 320 316 315
313 315 315 314 314 314 314 314 314 312 313 313 313 314 313 318 320 323 323 326 325 325 325 324 322 321 320 320 321 321 320 319 320 320 321 322 322 322 319 318 319 318 316 315
313 314 314 314 314 315 315 315 315 314 313 313 315 315 315 318 319 320 320 322 325 326 327 324 322 320 320 319 320 321 320 320 319 319 320 321 322 322 321 321 321 320 318 317
313 312 314 315 315 314 315 313 315 314 315 316 315 318 315 315 319 321 320 320 324 326 325 323 321 319 319 319 318 320 320 319 319 319 319 321 320 321 322 321 320 321 321 321
313 313 314 316 315 314 316 313 314 314 315 316 317 316 315 317 319 318 319 319 321 324 324 323 320 319 318 318 318 319 320 319 319 318 318 319 320 321 321 322 321 322 322 322
311 312 312 313 314 314 316 315 316 317 316 319 318 318 317 316 318 318 318 317 318 322 324 323 320 318 317 317 318 319 319 319 319 318 317 318 320 319 321 321 321 321 321 321
312 311 311 315 313 314 315 316 319 319 321 322 317 318 319 316 315 316 316 316 316 320 323 322 319 317 316 316 318 318 318 318 318 318 317 317 318 319 319 320 320 319 319 319
310 312 312 312 316 317 316 316 319 324 322 321 321 323 320 318 317 316 315 315 317 320 323 323 321 319 317 316 317 317 316 316 317 318 318 317 317 317 317 318 317 317 317 317
312 312 311 312 313 315 316 318 316 321 323 324 321 320 317 317 316 315 314 314 317 320 323 323 321 320 318 317 316 317 316 316 316 316 317 317 317 317 317 317 317 317 316 319
313 314 312 313 312 313 315 316 321 320 327 328 322 323 320 318 317 315 314 316 318 320 322 322 322 320 319 317 316 316 316 316 316 315 315 316 316 317 318 317 316 316 319 321
310 313 314 313 313 313 315 316 320 321 320 322 323 321 317 318 318 318 314 313 317 320 321 323 322 321 319 317 315 315 316 315 314 314 314 315 316 317 317 317 315 314 317 319
311 311 314 314 314 313 313 315 319 321 324 320 319 320 316 317 316 315 312 312 316 319 320 321 322 322 319 317 315 314 315 315 314 314 314 315 315 315 315 317 317 318 318 320
318 316 313 315 314 314 317 316 318 321 321 323 323 322 317 317 318 316 315 312 311 317 319 319 319 320 321 319 318 316 315 315 315 316 316 317 318 318 319 319 320 320 320 320
317 320 315 314 313 313 317 316 317 320 319 320 321 321 319 319 317 316 316 313 311 313 316 317 318 319 320 321 320 319 318 317 316 317 318 319 319 319 320 320 320 320 320 320
317 319 315 315 313 313 318 318 318 318 317 319 319 321 321 318 317 317 316 314 312 312 314 314 316 316 318 319 321 320 320 319 319 320 320 320 320 321 321 322 321 321 321 321
317 318 316 316 314 314 315 316 316 317 318 318 317 317 317 317 316 316 316 315 312 311 312 313 314 315 314 317 319 321 321 320 320 320 321 321 321 321 322 323 323 323 322 322
318 315 316 318 317 317 319 317 316 317 317 318 320 317 316 317 316 315 316 314 314 311 311 313 315 317 318 319 319 319 319 321 321 320 321 320 318 319 322 322 322 321 321 320
315 315 314 316 317 320 317 315 316 317 316 316 317 317 317 317 315 313 313 314 312 312 311 310 312 315 318 320 319 317 317 318 319 318 317 317 318 319 319 318 318 316 313 312
314 316 317 320 320 317 316 318 319 319 318 316 317 317 318 316 310 310 309 310 313 312 312 310 312 316 318 317 317 317 317 316 316 313 313 315 316 316 314 311 310 309 307 306
312 315 318 317 322 322 315 314 316 317 319 317 317 318 315 312 313 312 311 312 311 308 312 313 316 316 316 314 315 314 314 314 312 312 312 313 312 311 308 307 305 303 303 301
317 316 320 319 319 319 316 315 316 320 319 317 318 318 316 314 313 313 310 311 314 315 314 314 315 315 314 314 314 313 312 311 311 311 309 308 308 307 306 304 302 301 300 299
314 314 316 317 319 320 315 319 321 316 316 318 317 317 318 317 315 314 312 313 316 316 314 313 313 313 313 313 314 312 310 309 309 308 307 306 305 303 302 301 299 299 298 295
311 312 313 314 315 313 314 318 317 317 317 317 316 316 315 316 315 313 314 315 315 314 314 312 311 310 310 311 312 309 307 307 306 304 302 302 301 300 300 299 297 295 295 292
305 310 312 313 313 315 315 315 318 317 317 316 315 315 315 316 314 315 312 313 312 311 311 310 310 309 307 308 309 307 306 306 304 301 300 300 299 298 298 297 297 296 294 292
304 308 311 312 312 312 313 315 316 316 316 315 313 314 315 316 315 315 312 310 309 308 306 305 305 304 303 303 303 304 305 305 301 299 298 297 296 295 292 290 290 291 290 292
308 309 310 309 310 310 311 311 312 313 314 316 314 315 313 312 311 309 308 307 305 302 300 299 298 296 294 295 296 298 300 300 296 291 289 287 287 285 284 283 283 285 286 288

GFSCGP_925_thetae_081.txt.gz
Theta_e
314 316 318 318 317 314 316 315 315 315 314 315 315 315 316 317 322 323 326 329 330 329 327 325 322 321 320 321 321 320 319 318 319 319 321 322 322 321 322 320 317 316 315 314
314 318 316 315 316 317 315 315 316 315 314 315 316 317 317 317 319 323 325 328 330 330 327 325 323 322 320 321 321 321 320 319 319 319 321 321 321 322 321 317 319 317 315 315
314 316 315 315 315 317 318 318 318 316 314 315 315 317 318 318 320 321 324 326 329 330 329 326 324 322 320 321 321 321 320 320 319 320 320 320 320 321 319 318 316 317 318 316
313 313 314 315 315 316 317 316 316 317 317 317 316 319 318 319 318 320 322 325 328 330 329 327 324 322 321 320 321 321 320 320 319 319 320 319 319 320 319 318 315 314 315 318
315 314 313 315 315 315 316 315 316 317 317 316 315 318 319 317 320 321 321 323 325 327 330 329 325 322 320 319 320 321 320 320 319 319 320 320 321 320 319 319 317 317 318 317
311 311 313 313 314 315 316 316 316 316 317 319 317 319 321 321 321 321 320 320 323 326 328 328 325 323 319 319 318 319 319 321 321 320 320 320 321 321 320 319 319 320 321 320
310 311 312 313 314 315 316 318 319 323 323 318 320 321 321 320 318 319 321 320 321 324 327 328 326 321 319 318 317 318 318 320 320 319 319 319 320 320 320 321 321 320 321 321
310 310 313 313 315 316 317 318 318 318 323 320 319 323 321 321 320 319 319 319 318 323 326 327 326 323 320 318 317 317 319 320 320 320 318 317 318 319 319 319 320 320 320 321
310 309 310 312 315 316 317 318 316 320 324 326 323 322 320 321 319 318 318 317 318 322 325 326 325 324 322 319 318 318 319 320 319 319 319 318 317 318 318 319 319 321 320 319
313 314 313 312 312 314 317 317 319 319 320 323 323 324 322 320 320 319 320 320 319 320 324 325 325 324 323 321 319 318 319 319 319 319 319 318 318 317 317 318 318 318 318 318
312 313 316 314 314 314 314 317 320 319 321 321 323 323 321 322 321 322 321 318 317 322 324 325 325 324 323 321 319 318 318 318 318 318 318 318 318 318 317 317 318 317 317 317
316 315 314 313 314 313 314 315 317 324 325 323 322 322 318 320 321 319 319 317 315 318 323 325 325 324 322 321 319 318 318 318 317 316 316 317 317 318 317 316 316 317 317 317
312 319 317 314 312 312 314 316 316 317 320 324 328 323 319 318 319 319 319 320 318 316 322 325 325 324 323 322 320 319 318 318 317 316 315 315 316 317 317 316 317 317 317 317
313 315 320 319 316 315 315 317 317 319 322 321 322 321 321 321 321 321 319 319 318 316 319 323 325 325 323 322 320 319 318 317 317 316 316 316 315 315 315 316 317 318 319 319
315 312 313 317 316 318 318 315 316 320 320 322 321 321 321 321 321 320 318 318 317 316 316 320 323 324 324 323 321 319 318 317 317 317 316 316 316 316 316 317 318 319 320 320
311 315 316 317 317 318 318 317 314 317 317 318 318 320 318 319 319 319 319 318 318 317 315 317 318 319 322 322 322 320 319 317 316 316 317 317 317 317 318 319 319 319 320 320
307 315 318 317 317 317 319 317 316 316 317 318 320 319 319 319 319 319 318 317 317 318 316 315 317 318 319 319 320 321 320 319 318 317 318 318 318 318 319 319 319 319 320 321
309 312 315 317 318 324 318 316 316 317 317 318 318 318 319 319 318 317 317 317 316 316 317 315 314 316 318 318 318 319 319 320 320 320 320 320 319 319 318 318 319 320 320 317
308 309 316 319 321 317 319 319 320 319 319 317 317 317 317 317 315 318 314 312 313 314 315 316 314 314 318 319 318 318 318 319 319 318 317 317 317 317 317 316 315 313 310 308
307 308 316 318 320 319 318 317 317 318 322 318 318 318 318 314 320 318 314 315 313 313 312 311 312 316 318 317 318 317 317 316 314 314 315 317 317 316 313 311 308 305 304 302
313 315 316 316 318 319 317 316 317 321 322 318 319 319 317 319 319 318 315 315 314 317 316 315 316 316 317 317 317 316 315 313 313 313 313 312 311 310 308 305 303 302 300 298
316 317 317 316 319 320 316 319 321 320 318 319 318 318 319 318 316 317 315 316 317 316 314 315 315 315 314 315 315 314 311 309 309 307 306 305 305 303 302 302 300 298 297 294
310 314 316 317 318 315 314 318 318 318 319 320 319 318 320 319 318 318 317 315 314 313 312 311 312 312 313 312 311 308 306 306 305 304 302 302 302 301 300 300 296 294 293 290
307 309 314 314 312 313 313 313 314 315 317 318 317 316 316 317 315 315 315 313 312 312 311 308 308 307 305 307 306 305 304 305 304 300 298 298 298 296 296 295 294 292 291 289
307 308 311 312 311 313 312 312 312 312 311 312 315 315 314 314 315 314 313 310 307 307 307 306 305 303 302 302 302 302 301 300 297 295 293 291 291 290 289 289 289 290 290 291
308 310 312 312 310 311 311 310 308 309 311 312 314 314 310 312 311 307 304 302 300 299 298 297 295 293 293 294 294 296 298 299 294 290 289 287 286 286 285 284 284 286 287 287

GFSCGP_925_thetae_084.txt.gz
Theta_e
310 315 315 315 317 317 318 319 320 320 317 317 318 318 317 318 321 324 326 328 330 330 329 329 325 324 323 323 322 320 320 320 321 322 322 321 320 319 319 317 313 309 310 312
312 315 314 314 316 318 319 318 319 318 317 317 318 318 317 317 321 322 324 327 329 330 331 330 326 325 324 324 323 320 320 319 320 321 322 321 321 318 316 315 314 313 314 312
314 314 313 316 317 318 318 319 319 318 318 318 319 319 319 316 321 323 324 325 327 330 333 332 329 326 326 324 323 321 319 319 319 321 322 321 320 320 319 317 317 316 316 315
314 313 315 315 317 316 318 317 317 318 318 319 318 320 318 320 321 322 324 327 328 329 331 332 330 327 326 324 323 323 321 320 320 320 321 321 319 319 320 320 318 317 318 318
316 315 314 316 317 316 316 316 315 317 319 320 320 320 318 317 320 321 321 324 328 329 331 333 331 328 327 324 322 323 322 321 320 320 320 321 320 319 321 319 317 317 319 320
313 313 314 315 314 315 317 317 318 319 320 322 321 319 320 320 322 322 322 322 325 327 330 332 330 328 327 324 321 323 322 322 320 320 320 320 320 320 320 318 316 316 318 319
304 309 312 314 315 315 317 318 322 324 324 323 319 319 320 321 322 322 322 322 324 326 329 331 332 330 327 324 322 322 322 322 321 320 320 321 321 320 320 319 317 316 317 318
307 306 306 308 312 314 317 319 322 323 324 324 319 321 321 321 321 322 322 323 324 326 328 331 332 331 327 325 322 321 321 321 322 321 321 322 322 321 320 320 318 318 319 319
310 310 310 310 311 311 316 319 319 321 320 324 322 323 322 322 322 322 322 322 323 324 327 330 331 330 327 326 323 321 321 322 322 322 322 322 322 322 322 320 319 319 320 320
313 313 312 312 313 313 313 316 319 320 321 323 321 323 323 322 322 321 323 324 324 323 326 329 330 330 328 326 324 321 322 323 324 324 323 323 322 322 322 322 321 321 321 322
315 314 315 315 314 314 315 317 318 319 320 322 322 322 321 322 322 323 323 323 323 324 326 328 329 329 329 327 325 322 323 324 324 323 324 323 323 322 321 322 322 322 322 322
317 319 316 314 315 315 315 316 318 321 318 321 322 323 322 323 323 323 323 323 321 324 326 328 328 329 328 328 326 325 323 323 323 323 323 323 323 323 322 322 322 322 322 322
313 320 320 316 315 314 315 315 316 318 319 322 328 323 320 321 321 322 323 323 323 321 325 328 329 329 329 328 327 325 324 323 323 323 323 323 323 323 323 322 322 322 321 321
309 311 317 321 320 320 320 318 317 318 323 320 321 320 321 321 321 321 322 322 322 322 323 327 329 329 328 327 327 326 325 323 323 322 322 322 322 323 322 322 322 321 320 320
311 311 310 311 313 314 316 318 319 319 318 322 320 319 319 319 321 321 321 321 321 321 321 323 328 329 329 328 327 326 326 324 323 322 321 321 321 321 321 321 321 320 319 320
309 315 315 316 314 315 318 317 318 319 318 318 318 319 320 320 320 321 321 321 321 321 321 321 322 327 329 328 327 326 326 325 324 323 322 321 321 321 320 320 320 320 320 320
310 312 313 315 315 316 318 319 320 319 318 318 320 319 319 319 319 320 320 320 321 321 320 320 320 322 327 327 326 326 325 325 324 323 323 322 322 321 321 321 321 321 322 321
309 311 313 314 316 319 317 318 321 320 318 317 317 318 318 319 319 320 320 320 319 319 317 317 318 320 321 324 326 326 325 324 324 323 323 322 322 322 322 321 321 322 321 319
309 310 312 313 317 316 317 314 320 323 320 318 318 318 319 319 319 320 318 320 321 320 318 318 317 317 319 321 323 325 325 325 324 323 323 322 322 322 322 321 318 316 317 314
308 309 312 313 318 316 315 314 317 317 325 321 321 322 321 321 323 322 321 321 322 321 321 319 318 315 317 321 321 323 324 324 324 324 324 322 321 318 317 316 315 311 309 306
311 311 313 313 317 316 317 317 317 326 326 321 321 321 321 323 323 321 320 321 321 321 319 318 318 318 319 321 322 323 323 323 322 319 318 316 315 314 314 310 307 305 302 299
313 312 313 312 318 317 315 316 319 319 321 320 321 321 322 321 320 320 320 321 320 318 316 316 318 317 318 320 321 320 317 313 310 308 308 308 308 306 305 304 300 298 295 292
309 316 318 316 314 313 312 314 315 315 317 317 319 321 321 320 319 319 321 320 317 315 312 313 313 312 314 316 315 310 306 305 305 304 301 301 301 300 299 298 294 292 292 289
308 310 312 312 313 312 312 313 312 313 314 315 316 316 319 320 320 319 319 317 315 311 310 308 307 305 305 305 305 304 302 302 300 297 296 295 294 293 293 293 292 291 290 288
309 309 309 310 310 313 310 312 311 310 311 311 314 317 318 319 319 318 316 311 309 308 305 303 302 301 300 300 301 301 300 300 295 293 291 290 289 288 287 288 289 289 289 288
310 311 312 313 310 311 312 310 308 308 307 305 308 315 313 316 314 310 306 303 301 299 297 296 295 294 294 294 295 297 297 295 293 291 289 289 288 287 286 285 284 285 285 286

GFSCGP_925_thetae_087.txt.gz
Theta_e
310 307 313 314 314 316 318 319 320 322 323 321 321 322 322 321 320 320 323 324 327 330 330 330 330 328 328 327 325 324 321 321 322 322 321 319 319 318 317 315 315 316 316 314
312 310 313 316 315 316 317 318 320 320 321 321 320 322 321 322 321 320 321 324 326 329 330 331 330 328 328 327 326 323 323 321 322 322 321 319 319 317 315 315 315 314 314 314
316 316 314 314 315 317 317 319 321 321 321 321 320 322 322 322 322 321 319 323 323 327 331 332 332 329 327 327 325 323 323 322 323 322 321 319 318 318 318 317 315 314 312 313
315 315 316 316 316 316 319 319 319 319 321 322 321 324 323 323 321 320 320 323 324 325 330 332 333 330 328 328 325 325 323 322 322 322 322 319 318 318 318 316 313 316 315 313
314 315 315 316 316 315 318 318 318 319 320 320 321 322 323 323 323 321 323 324 325 325 329 332 333 331 330 329 325 324 323 322 322 322 322 321 318 317 317 316 316 316 317 314
315 316 315 315 315 317 317 317 318 319 319 323 322 324 325 324 323 323 323 322 323 325 328 331 332 331 331 329 326 324 324 322 322 321 321 321 320 318 318 317 318 318 318 316
310 311 314 315 316 316 316 318 322 325 325 326 323 323 324 323 323 323 322 322 323 324 327 330 334 333 331 329 326 324 323 323 321 321 321 321 320 319 320 318 318 317 317 317
309 309 307 313 314 316 317 318 322 325 328 327 325 324 323 322 322 322 323 323 324 325 327 330 333 333 331 330 326 323 323 323 323 322 322 321 321 319 320 321 318 316 317 318
313 312 311 308 309 312 315 318 318 320 322 326 326 324 323 323 323 323 323 322 323 324 326 329 331 333 331 330 327 325 323 323 323 323 322 322 322 322 320 320 319 317 316 316
315 316 313 311 311 309 310 311 316 318 321 324 322 322 322 323 323 323 323 324 324 323 324 328 330 333 332 330 328 326 324 324 323 323 323 323 323 323 323 321 320 320 317 317
317 316 316 314 313 314 312 313 315 317 320 320 323 322 323 323 323 323 324 324 324 325 325 327 330 331 332 330 329 327 325 324 325 323 323 323 324 324 324 324 322 322 319 319
318 320 318 315 315 315 315 315 315 318 320 320 321 322 321 323 323 324 323 325 324 326 326 327 330 331 332 330 330 328 325 325 326 326 325 324 324 324 324 325 324 323 323 321
311 319 319 317 315 315 316 317 317 318 319 320 327 323 321 321 324 323 323 324 324 324 327 328 330 331 332 331 330 328 326 325 325 326 327 327 325 324 324 325 325 325 324 323
309 310 313 318 320 318 318 316 317 318 322 320 320 320 320 322 322 322 322 323 323 323 324 327 330 330 331 331 331 329 328 327 326 326 326 326 327 327 326 326 325 325 325 324
310 311 311 311 311 312 316 316 317 318 318 320 319 319 319 319 319 322 322 322 322 322 322 323 328 330 330 330 331 330 329 328 327 326 326 326 327 326 326 326 326 325 324 325
312 314 313 314 312 313 313 314 315 316 317 318 318 319 319 319 320 321 319 320 321 322 322 322 323 327 330 329 329 330 330 329 328 327 326 325 326 325 326 326 326 325 325 324
312 313 314 314 311 316 318 314 315 318 319 319 319 318 318 319 320 321 320 320 321 321 322 322 322 322 325 329 329 329 329 329 328 327 326 326 325 325 325 325 324 324 324 323
311 311 312 315 312 313 312 318 318 320 320 322 321 319 318 318 320 320 320 321 321 322 322 322 321 321 321 323 328 328 329 328 329 328 327 326 326 325 324 324 323 323 323 323
309 311 315 315 314 312 311 315 315 317 317 322 324 318 317 318 318 319 320 321 322 322 323 323 322 321 319 320 322 327 328 328 328 328 327 327 326 325 325 325 324 324 324 321
310 310 313 313 313 316 319 316 317 318 324 321 323 324 321 321 325 324 323 323 323 323 323 323 322 321 320 319 321 324 327 327 327 327 326 326 326 325 325 325 318 313 314 312
313 313 313 313 313 314 317 317 318 322 323 316 319 324 324 324 323 322 321 322 322 322 321 321 322 321 321 321 322 322 324 327 327 326 326 325 325 325 319 313 311 307 303 299
314 314 315 313 312 315 314 317 321 318 318 318 320 320 321 321 320 320 322 322 322 321 320 319 318 317 318 321 322 323 322 317 315 313 312 311 311 311 307 305 299 297 295 291
315 313 315 312 312 316 313 317 314 313 315 316 317 318 318 320 320 320 322 322 320 317 316 314 312 309 308 312 313 309 307 307 306 305 301 300 300 298 297 295 293 291 290 289
310 313 316 315 314 314 313 313 312 311 311 311 313 318 319 320 319 320 322 320 316 312 311 308 305 303 303 303 303 303 301 299 297 295 293 293 292 291 291 291 291 290 289 287
311 311 311 310 314 313 313 311 310 310 310 308 309 315 315 320 321 320 317 311 307 303 301 301 299 297 296 299 298 297 296 296 293 292 291 289 288 287 286 286 287 286 287 286
312 312 314 317 312 312 312 310 307 307 308 306 306 308 309 311 312 308 302 298 297 296 295 294 293 293 292 292 292 295 294 293 291 290 289 288 287 286 285 284 284 284 285 285

GFSCGP_925_thetae_090.txt.gz
Theta_e
309 309 309 310 314 315 318 318 320 320 322 322 323 324 322 322 323 322 323 323 323 325 329 331 331 330 329 329 326 323 322 323 323 321 320 319 318 317 317 317 319 318 318 317
313 310 309 309 312 315 316 316 317 319 321 320 322 322 322 322 323 323 322 321 324 324 328 331 332 330 330 328 325 323 323 322 323 321 320 318 317 316 316 315 314 314 314 315
317 316 312 311 310 312 317 318 318 320 321 321 322 322 322 322 322 323 323 322 321 325 328 332 333 331 330 328 324 323 322 323 322 321 319 318 316 315 315 315 314 313 313 313
317 315 315 316 315 312 316 317 318 320 322 325 321 324 324 323 323 324 324 324 322 323 328 331 333 332 330 329 325 323 323 323 322 320 319 317 316 315 315 314 314 315 315 315
315 314 314 315 315 316 316 317 318 321 322 322 320 323 321 322 322 323 324 323 322 325 325 332 333 332 330 329 326 323 323 324 323 321 319 317 316 316 316 316 315 314 314 315
313 314 315 315 316 316 317 317 318 320 321 325 322 322 322 322 324 325 323 323 325 325 326 331 333 332 331 330 326 324 323 323 323 322 320 317 317 317 317 315 315 316 314 314
309 311 313 316 316 316 316 318 321 324 325 327 321 322 324 323 324 324 324 324 324 325 326 329 334 333 331 331 326 325 323 322 322 323 321 318 317 317 317 315 315 315 317 316
311 310 312 314 315 316 316 319 320 322 330 331 326 327 323 323 323 323 323 323 324 325 328 329 334 333 332 331 328 324 324 323 323 323 322 320 318 317 317 316 316 316 316 316
314 313 312 310 311 315 317 318 317 320 321 325 324 326 325 324 322 323 323 323 324 326 327 327 333 334 332 332 329 325 324 323 322 322 323 322 321 318 317 317 317 317 317 317
315 317 315 311 309 311 314 317 319 319 321 319 319 322 325 325 324 323 324 324 324 324 325 327 330 334 332 332 329 326 324 324 323 322 322 322 322 320 319 319 317 317 316 316
319 317 315 314 309 310 309 310 311 312 315 319 323 324 325 326 325 325 325 326 326 326 326 327 329 334 332 332 329 326 325 324 323 323 323 323 323 321 319 320 320 318 317 316
316 319 320 315 314 313 313 311 311 314 317 320 321 321 320 321 323 324 324 326 326 325 327 327 329 334 333 332 330 328 326 325 324 323 323 323 323 323 322 321 321 321 319 317
310 315 318 316 315 315 316 316 315 315 316 318 323 323 320 323 323 324 323 324 325 326 328 327 329 333 334 332 331 329 327 326 326 324 324 323 324 324 325 324 323 322 321 320
308 310 312 316 319 316 318 319 315 317 320 319 319 318 319 320 321 322 323 324 324 324 325 328 329 331 333 333 331 330 328 327 326 327 325 324 324 325 325 326 326 325 323 323
310 311 310 310 309 310 311 312 317 318 317 319 319 318 319 319 319 320 322 322 323 322 322 325 329 330 331 332 332 331 329 327 327 327 328 326 325 325 324 325 325 326 326 324
312 316 313 313 312 312 311 311 312 315 315 315 316 317 317 318 318 319 321 322 321 322 322 323 324 327 330 331 332 332 330 328 327 327 328 328 328 327 326 325 326 325 326 326
312 313 314 314 312 312 315 314 312 312 314 315 319 321 320 320 319 319 320 322 321 322 322 323 322 323 326 330 330 332 332 330 329 328 327 327 328 328 328 328 327 327 325 325
311 311 313 315 314 314 312 311 317 316 317 318 317 317 319 325 320 318 320 321 321 323 324 324 324 323 323 322 329 330 331 331 329 329 328 328 327 328 327 327 327 327 327 326
310 310 314 315 314 312 312 311 314 317 317 319 322 322 324 325 320 319 323 323 324 324 324 324 323 323 322 322 321 328 329 330 331 329 329 328 327 327 327 326 326 326 326 326
310 310 313 314 314 314 316 319 318 317 320 319 317 318 321 323 327 327 324 324 324 323 322 322 323 323 323 323 320 321 328 329 329 330 329 328 328 327 326 325 325 322 321 314
313 314 314 315 314 313 314 316 316 321 320 317 319 317 320 321 320 320 323 322 322 322 321 320 320 319 319 320 322 323 324 327 328 328 328 327 327 325 320 317 313 311 310 303
314 315 315 314 313 314 317 316 320 317 316 316 316 315 318 320 320 319 319 322 321 319 317 314 314 311 310 313 317 314 311 310 310 318 310 309 310 311 312 311 304 299 296 292
316 313 316 312 313 316 313 315 312 312 312 311 312 313 319 320 321 320 322 319 314 311 309 307 305 304 302 303 305 307 304 305 303 300 301 301 302 301 297 297 294 293 291 288
313 312 316 313 313 315 314 312 310 310 310 308 308 310 313 316 318 317 313 310 305 302 300 299 298 296 295 297 297 296 296 297 298 295 292 292 292 291 291 292 291 289 288 287
313 313 314 314 314 314 312 310 307 307 308 307 307 307 309 310 309 305 301 300 298 297 295 294 294 294 294 293 293 293 292 292 290 289 289 288 287 287 286 286 286 286 286 286
310 311 314 316 309 311 310 305 304 305 306 306 305 305 306 303 301 299 295 293 292 292 292 292 291 291 291 292 292 293 293 290 289 288 287 286 286 285 284 284 283 283 283 283

GFSCGP_925_thetae_093.txt.gz
Theta_e
306 305 306 306 308 312 314 316 317 316 315 317 318 318 318 318 317 317 316 316 315 316 323 327 329 328 328 327 325 324 323 322 323 322 321 321 321 322 323 324 325 327 327 326
307 307 307 307 307 308 310 312 313 313 314 316 316 319 319 319 318 318 317 316 316 316 324 328 327 328 327 325 324 323 323 322 322 322 320 319 319 318 319 319 319 322 321 323
311 314 311 309 308 307 307 310 313 315 316 317 319 321 320 319 318 318 318 317 315 318 325 329 327 327 325 324 323 323 322 323 322 321 319 317 317 315 315 316 316 316 318 321
316 316 316 313 309 309 308 308 310 314 319 321 320 326 322 320 319 320 319 318 318 314 328 329 328 327 325 324 324 323 322 323 322 320 318 317 316 316 315 315 315 315 317 320
313 315 314 315 313 312 312 310 312 318 320 321 322 325 322 319 320 320 319 318 318 315 329 330 328 328 325 324 323 323 322 323 321 320 318 316 315 315 315 315 314 315 316 317
309 309 310 312 313 313 314 316 318 319 321 325 323 324 322 320 320 320 320 320 318 316 329 330 328 328 325 323 323 323 323 323 321 319 317 316 315 314 314 314 315 314 314 314
307 307 308 310 311 314 315 316 319 322 323 322 319 323 322 320 320 320 320 320 318 318 328 331 329 328 326 324 322 323 323 324 321 319 317 316 316 315 315 314 315 314 314 315
307 308 307 308 310 314 315 316 320 323 326 329 321 329 326 323 322 320 320 318 318 318 328 331 330 328 327 324 323 323 322 324 322 320 318 316 317 316 315 314 316 314 314 314
313 312 314 308 308 314 315 316 316 320 319 325 322 320 320 323 323 322 319 319 319 320 328 331 330 329 328 325 323 323 322 322 323 322 319 317 317 317 316 315 314 315 315 314
315 317 316 314 310 311 313 315 318 319 320 319 317 317 323 321 324 323 321 319 319 321 325 331 330 329 329 326 324 323 322 322 322 323 322 319 317 317 317 315 315 315 315 315
318 319 317 316 308 308 310 313 315 314 317 319 319 320 321 323 322 324 323 320 320 320 320 324 331 330 330 327 324 323 323 322 322 322 322 322 319 318 317 317 315 316 316 316
310 318 319 318 316 315 310 309 310 311 313 314 316 316 321 318 322 323 324 324 322 321 320 321 331 330 330 328 324 324 323 323 322 322 322 322 322 320 318 317 317 316 317 316
309 313 318 315 315 317 318 312 311 311 311 312 317 317 316 316 322 323 323 324 322 324 323 322 331 330 330 328 325 324 323 322 322 322 322 322 323 322 320 319 319 317 317 316
309 310 311 314 314 313 312 312 313 318 317 314 313 312 314 316 320 324 323 321 319 320 322 323 331 330 330 329 327 325 324 323 322 323 322 322 322 323 322 319 319 320 319 317
310 310 311 311 310 310 310 310 310 310 319 321 319 318 316 316 317 317 318 318 319 320 320 323 324 330 330 329 328 327 325 324 323 323 323 322 321 321 322 322 321 320 320 320
313 315 315 315 313 313 312 312 311 311 311 313 315 314 317 318 318 322 323 319 318 319 320 321 321 325 330 329 329 328 326 325 325 325 323 323 322 322 323 324 324 323 322 321
312 313 313 315 313 313 313 312 312 312 312 311 314 320 322 323 323 322 322 323 320 320 322 322 322 321 320 322 329 329 327 326 325 325 325 324 323 323 323 324 324 324 325 325
310 312 311 314 312 313 313 311 312 318 319 319 321 320 319 319 319 321 321 320 323 323 322 322 321 321 320 321 321 321 329 327 326 325 325 326 326 325 324 324 323 323 324 324
309 310 309 313 313 313 312 318 319 319 321 318 317 316 317 318 319 322 318 319 321 321 321 320 319 318 317 317 319 321 322 328 327 326 326 326 326 327 326 326 325 324 325 324
309 309 310 310 314 312 317 315 316 316 321 317 317 317 317 316 322 319 318 319 318 315 315 314 312 310 309 309 314 316 314 317 325 327 327 326 326 326 326 326 326 326 326 321
311 311 310 310 313 312 316 315 316 322 318 314 314 315 317 316 318 319 319 316 313 310 308 308 306 304 303 304 310 308 307 307 306 308 325 327 327 327 326 326 322 317 312 307
311 314 311 309 313 312 313 315 318 312 311 310 310 312 317 316 318 321 316 309 307 304 303 302 302 300 299 299 302 301 300 301 302 305 302 303 309 314 318 317 308 306 305 299
313 311 310 310 311 312 312 311 310 309 308 307 308 309 310 311 310 308 307 303 301 299 298 298 297 297 297 297 297 296 295 295 296 297 296 294 296 298 298 299 297 295 293 290
313 313 314 311 314 314 311 309 308 307 307 305 305 306 306 305 303 302 300 298 297 296 295 295 296 295 295 294 294 293 293 293 291 289 289 289 289 288 289 290 291 290 289 288
312 311 315 314 313 309 306 305 304 305 305 305 303 303 301 300 299 297 295 294 293 292 292 291 291 290 290 291 292 291 291 294 288 287 286 286 285 285 285 285 285 285 286 286
307 306 309 309 303 308 304 302 302 302 301 303 301 300 297 296 294 292 290 289 289 289 288 288 288 288 287 288 289 290 290 289 290 286 285 284 284 283 283 283 283 283 283 285

GFSCGP_925_thetae_099.txt.gz
Theta_e
304 304 305 306 311 312 314 315 315 313 313 311 312 312 311 309 311 313 312 312 312 312 312 316 322 326 326 327 327 327 326 325 325 325 325 325 325 326 328 327 328 327 327 327
305 305 304 306 309 309 309 311 311 310 311 311 311 311 309 310 313 313 313 313 314 313 319 324 326 325 325 325 325 325 325 324 325 324 323 323 323 324 325 327 327 327 327 326
307 307 305 305 305 306 305 307 306 309 307 307 309 310 312 313 313 314 314 313 314 314 316 325 326 325 325 324 324 323 323 325 323 323 323 322 321 321 322 323 325 327 326 325
309 306 306 305 305 305 305 305 306 305 305 305 311 309 308 312 313 315 315 315 315 314 315 324 326 325 324 324 323 323 322 324 322 321 321 320 318 318 319 321 321 324 327 327
311 313 310 306 307 305 306 307 306 306 305 306 310 318 312 316 315 314 314 314 315 314 312 324 326 325 324 323 322 322 322 322 321 320 320 320 319 318 319 319 320 321 322 323
306 306 307 311 311 312 311 309 310 309 308 315 311 318 314 312 315 316 316 316 320 315 311 322 325 325 323 321 321 322 321 321 320 319 320 320 319 317 317 317 317 318 320 322
304 304 305 307 307 307 310 311 315 317 321 317 318 319 316 315 316 316 319 321 321 317 313 321 326 324 323 321 321 321 321 320 318 319 320 319 318 318 317 316 316 317 317 319
306 307 305 305 306 306 307 309 314 318 318 316 317 321 316 319 318 320 320 321 320 320 318 321 326 324 323 321 321 321 321 320 318 319 319 318 318 317 316 316 316 316 316 316
306 306 305 305 306 306 308 312 310 313 316 318 318 318 314 318 321 321 321 320 319 319 321 322 326 324 323 322 321 321 320 320 319 319 318 318 318 316 316 315 316 316 317 316
307 310 311 313 306 306 308 309 313 313 318 319 315 316 315 322 324 321 321 320 319 319 320 325 326 324 323 322 321 321 321 320 319 318 317 316 316 316 316 315 315 316 317 318
309 313 311 313 309 306 308 310 313 313 314 317 317 314 321 322 320 323 322 320 320 320 319 328 327 324 323 322 321 321 321 320 319 318 317 316 315 315 316 315 315 315 316 316
310 314 312 311 315 315 308 310 313 315 315 315 315 316 319 317 322 322 321 321 319 320 318 318 327 325 324 322 321 321 321 320 319 318 317 316 316 315 315 315 315 315 315 315
310 313 315 315 317 313 317 315 311 314 310 313 315 316 315 315 319 321 321 320 319 321 320 319 327 327 324 323 322 321 321 321 320 319 318 316 316 316 315 315 315 315 314 314
311 312 313 314 312 313 313 315 314 312 316 315 315 316 317 320 320 322 322 319 320 320 322 321 324 327 325 323 322 321 321 321 321 319 319 318 316 316 316 316 315 314 315 314
313 312 313 314 312 310 311 312 314 311 311 313 316 316 320 321 320 320 321 322 322 319 321 320 325 327 325 323 323 322 321 320 321 321 320 319 318 317 317 316 316 315 315 315
312 314 312 312 310 310 312 311 311 311 311 312 313 314 318 319 319 321 323 324 321 323 319 316 316 316 323 324 323 322 321 321 320 320 321 320 321 320 318 317 317 317 316 315
309 311 310 312 311 309 312 311 311 318 317 319 319 319 317 318 321 321 321 320 319 317 315 312 311 311 312 313 316 323 322 321 321 321 321 320 320 321 321 320 318 317 317 316
308 309 308 310 308 307 312 317 316 318 317 316 318 316 316 315 320 319 315 315 314 312 311 309 308 307 306 308 309 312 322 322 322 321 321 320 319 320 320 321 321 319 318 318
308 308 307 308 309 308 315 315 317 318 316 313 314 315 316 315 317 312 308 309 309 308 308 306 305 303 303 305 305 306 307 316 321 316 320 321 321 320 320 320 321 321 319 319
307 306 306 307 311 309 314 315 313 315 319 311 311 314 313 313 316 312 307 304 304 303 302 302 300 299 298 299 302 303 303 304 304 304 304 309 315 321 321 320 320 320 320 321
308 307 309 308 308 309 312 313 312 314 312 309 309 311 314 313 310 307 305 302 300 298 298 298 297 296 295 296 298 297 297 297 297 298 300 303 306 310 315 321 321 320 321 321
311 310 310 310 308 310 310 312 310 308 309 307 307 308 308 307 306 303 301 300 297 295 294 295 295 294 293 293 294 293 292 292 292 292 293 294 297 301 303 309 308 312 310 305
313 311 308 308 309 310 306 307 306 305 304 304 304 303 303 301 300 299 297 296 294 292 292 292 292 292 291 292 291 291 289 289 289 288 288 289 290 291 294 295 295 294 294 291
307 310 313 311 311 307 306 304 302 303 301 299 298 297 298 298 297 295 293 292 291 290 290 290 290 290 290 290 290 289 288 288 287 286 286 286 286 287 288 290 290 289 288 287
307 307 307 309 305 305 301 300 300 301 298 296 294 293 293 295 293 291 290 289 288 288 288 288 288 288 288 288 287 287 287 286 285 285 285 285 285 285 285 285 286 287 288 291
303 303 305 302 302 303 300 298 298 295 294 293 293 293 291 291 290 288 287 286 286 286 286 285 286 286 286 286 285 285 285 285 284 284 284 284 284 285 285 285 284 284 285 285

GFSCGP_925_thetae_102.txt.gz
Theta_e
304 305 304 305 309 311 312 312 314 313 313 312 312 311 309 308 308 307 308 310 310 310 310 313 318 315 321 326 327 328 328 330 329 326 326 328 328 329 330 331 328 328 327 327
304 305 304 304 307 310 311 312 312 310 310 311 311 312 309 307 306 308 309 309 311 311 311 312 323 323 323 325 326 325 326 328 326 324 324 325 325 324 326 326 328 328 327 327
306 307 305 305 306 308 307 310 308 310 306 304 305 306 305 307 308 311 311 311 311 311 310 311 322 323 324 325 324 325 325 326 324 323 323 321 321 322 324 325 327 327 327 326
307 308 306 304 305 306 307 304 306 305 304 303 306 305 307 308 309 311 311 312 310 310 315 310 317 322 323 324 324 323 324 324 323 324 321 321 320 320 320 322 324 326 326 325
311 312 308 308 305 304 304 304 304 304 303 304 310 306 307 310 311 311 311 310 312 317 316 313 313 322 324 324 322 323 324 322 323 322 322 321 319 319 318 319 321 323 324 324
306 305 308 309 307 304 307 308 307 307 305 309 307 306 309 310 312 315 314 316 319 316 316 316 315 322 324 323 322 322 322 321 320 322 320 319 318 318 318 318 318 320 320 321
303 303 305 306 306 306 307 308 313 316 316 314 310 311 311 312 314 318 319 318 317 316 316 316 317 322 323 322 322 321 321 320 319 319 318 319 319 319 318 317 317 318 319 320
305 306 303 304 306 306 306 307 312 317 317 314 316 317 316 316 319 319 318 317 316 315 316 317 317 320 323 323 322 322 321 320 319 319 318 319 319 318 317 317 316 317 318 319
305 305 304 304 304 306 307 308 308 311 312 315 313 315 312 318 320 319 318 317 316 315 316 317 318 321 323 323 322 322 321 321 319 319 316 318 318 318 317 317 317 317 317 317
307 307 309 312 305 305 306 307 311 312 317 316 313 315 314 318 319 321 319 318 317 316 316 317 318 323 324 323 322 321 321 320 319 318 316 318 318 318 317 317 316 317 317 317
310 310 309 308 309 307 307 307 310 310 312 314 314 312 312 318 318 321 320 319 318 317 316 316 319 324 323 322 321 321 320 320 319 318 315 316 317 317 317 316 316 316 317 316
310 312 313 309 310 314 307 309 308 312 313 314 313 313 319 315 318 320 321 319 317 317 317 317 320 322 323 322 321 320 320 320 319 317 315 315 317 316 316 316 315 316 317 317
310 312 316 314 314 312 314 314 311 312 310 313 315 313 313 315 316 319 320 319 318 318 318 319 318 324 323 322 321 320 320 320 319 318 316 314 315 315 315 315 315 315 316 317
310 311 311 314 311 310 313 313 314 312 313 312 311 314 315 319 319 319 319 319 321 320 319 317 317 325 323 322 320 320 320 320 320 318 316 315 315 315 315 315 315 315 315 315
312 310 311 312 313 312 312 313 313 312 311 312 312 313 319 318 319 320 321 320 321 319 318 314 314 314 322 322 322 321 321 320 319 319 318 316 315 316 315 315 315 315 315 314
310 313 312 312 312 310 311 313 312 312 313 312 311 313 317 317 319 319 319 319 319 316 314 312 310 311 311 312 321 321 321 321 320 319 319 318 317 316 316 316 315 314 314 314
309 311 310 311 311 309 311 310 312 316 316 317 316 317 316 317 320 317 315 315 314 312 311 309 307 306 306 307 307 317 321 321 321 321 320 319 319 318 317 316 316 316 315 314
309 309 307 311 309 306 314 315 314 316 315 316 315 314 315 315 312 310 309 309 309 308 306 305 303 301 301 303 304 308 319 322 321 320 321 320 320 320 320 318 317 317 316 316
308 307 308 310 310 307 315 315 316 317 316 313 313 315 312 313 315 311 307 305 304 302 302 300 298 297 297 299 301 303 304 307 308 309 311 314 318 319 320 320 320 319 318 317
307 306 307 309 311 308 310 314 312 314 318 311 310 314 312 310 314 312 305 302 300 298 298 298 296 295 294 296 297 297 297 297 298 299 299 301 306 310 317 319 319 320 320 318
308 308 309 309 309 309 309 310 311 313 310 308 309 311 312 312 309 305 301 299 297 296 295 295 294 293 293 293 294 293 293 292 293 293 293 295 298 299 303 312 318 319 320 319
309 308 308 308 309 309 306 310 309 306 305 305 304 304 304 304 302 300 298 296 294 293 293 293 293 292 291 291 291 290 290 290 290 290 290 291 292 293 296 300 303 308 312 307
311 310 310 308 307 306 303 304 303 302 301 301 299 299 300 299 299 296 295 293 292 290 290 291 291 291 290 289 288 289 288 288 288 288 287 288 289 289 290 291 292 293 293 291
308 305 309 311 308 305 303 301 299 298 297 295 295 295 297 296 294 293 291 290 289 288 288 288 289 288 288 287 286 286 286 286 286 286 286 286 286 286 287 287 288 288 288 288
306 304 305 307 304 302 300 301 298 296 295 294 292 291 292 293 291 290 288 287 287 287 286 287 287 287 287 286 285 285 286 285 285 285 285 285 285 285 284 284 285 285 286 286
302 300 303 303 299 301 299 297 294 292 291 290 290 290 287 288 288 287 286 285 285 285 285 285 285 285 285 285 283 283 284 283 283 283 283 284 284 283 283 282 282 283 284 284

GFSCGP_925_thetae_108.txt.gz
Theta_e
303 305 308 309 312 313 313 312 313 313 315 317 318 319 319 320 320 320 320 320 320 320 319 317 318 321 322 322 322 321 325 330 332 335 333 331 330 331 332 331 331 331 330 330
305 306 307 308 309 310 310 311 312 310 314 316 316 317 317 317 317 317 317 316 317 316 315 318 321 323 323 324 325 325 327 330 332 332 331 331 330 330 330 330 331 329 329 328
306 306 306 307 308 310 311 311 310 309 311 313 314 313 313 313 313 313 313 313 314 315 318 321 323 323 323 324 325 326 327 330 331 331 329 331 330 330 329 329 328 327 328 326
307 308 307 308 308 309 310 310 309 310 313 312 311 311 312 312 313 314 315 316 317 320 322 323 323 323 323 324 325 326 327 329 330 331 329 331 330 329 329 328 328 327 326 326
310 307 309 309 309 308 309 308 308 310 311 310 310 309 310 313 313 314 316 318 322 323 323 323 323 323 322 323 327 327 327 328 328 330 329 330 331 331 330 329 328 325 326 325
311 312 309 309 309 308 309 308 309 309 309 310 310 309 312 314 315 316 320 323 323 323 322 322 322 322 322 323 325 328 328 327 326 328 329 330 332 331 328 326 325 324 325 325
308 311 311 312 310 309 308 310 315 316 315 314 314 313 313 315 316 318 321 322 321 320 321 321 321 322 322 322 323 327 328 326 325 326 327 330 331 329 328 327 325 323 324 325
308 309 309 310 312 311 309 311 312 314 316 315 314 314 314 314 318 321 320 320 320 320 320 320 320 321 321 321 323 325 327 325 324 324 325 327 328 329 327 325 323 321 323 324
307 306 307 308 310 310 311 313 312 314 314 316 315 316 318 320 321 321 320 319 319 320 320 321 321 321 321 321 322 324 326 325 324 323 323 323 325 327 326 324 323 322 323 323
311 309 306 306 306 308 309 310 313 313 312 312 311 313 314 320 320 320 319 319 320 320 322 321 320 320 318 318 320 323 326 324 323 322 321 320 326 326 325 324 321 321 321 322
314 313 312 310 309 307 307 311 311 311 312 311 311 314 315 316 318 318 318 320 321 322 321 320 319 317 314 317 315 324 324 323 323 321 320 322 325 325 324 323 320 320 322 321
313 316 313 312 314 310 307 307 310 311 312 313 312 312 317 318 318 319 320 322 322 322 320 318 317 314 312 310 307 323 323 323 322 321 321 322 323 324 322 321 320 320 321 321
312 316 312 313 315 314 314 313 310 312 313 315 317 317 319 320 320 321 322 322 322 321 320 317 316 313 310 306 306 321 323 323 322 321 321 321 320 322 320 321 320 320 321 321
312 313 315 313 314 314 315 315 314 314 316 314 314 314 317 318 319 321 321 320 317 317 316 313 313 312 306 304 303 307 323 322 320 320 320 319 319 320 320 320 320 320 320 319
312 314 313 313 313 314 314 314 314 314 315 315 313 314 316 319 320 319 316 315 315 313 312 309 308 307 304 302 301 302 321 320 319 319 318 318 318 318 320 320 319 319 319 319
311 313 311 312 311 313 313 312 313 313 314 314 314 314 317 318 315 314 313 312 311 309 307 306 303 302 301 299 299 300 317 320 319 319 318 317 317 317 318 320 319 319 318 319
310 312 311 311 311 311 311 312 312 313 315 316 316 318 315 316 313 310 310 308 306 304 303 303 299 299 297 297 297 299 304 320 319 319 318 318 318 317 317 318 318 319 319 319
310 310 310 311 310 311 316 316 314 313 315 315 315 316 314 314 309 305 304 303 302 300 299 299 297 296 294 294 296 296 306 317 316 315 317 318 318 319 319 318 318 318 318 318
308 309 311 311 310 308 309 316 316 315 317 315 315 315 315 312 309 305 300 299 298 297 296 295 295 293 292 292 293 293 295 298 300 300 301 302 308 314 317 317 318 319 318 319
309 308 310 309 309 310 316 313 313 316 317 313 312 312 313 313 317 306 300 296 295 294 293 293 293 292 291 291 292 292 292 292 293 294 294 296 298 302 304 310 315 317 318 318
311 312 312 310 309 307 310 309 311 317 315 308 308 308 308 307 304 300 297 294 292 292 291 291 292 291 290 290 291 291 291 291 291 291 291 291 293 295 297 300 306 309 314 312
309 311 311 310 310 309 307 312 314 309 306 306 304 304 304 302 299 297 294 292 291 290 289 290 290 290 289 289 290 290 289 290 291 290 289 289 290 290 292 295 296 297 297 294
311 310 311 312 313 305 303 303 303 305 305 303 302 301 300 299 296 293 292 290 289 288 288 288 288 288 288 288 288 289 289 289 288 288 287 287 288 288 288 289 290 290 291 289
309 306 308 309 305 303 301 300 299 300 300 299 298 299 298 296 293 292 290 289 288 287 286 286 287 287 286 286 286 287 288 289 288 288 287 286 285 285 286 286 286 287 288 287
306 305 305 306 303 300 297 297 297 296 296 295 294 294 295 294 292 291 289 288 287 286 286 285 285 285 284 284 285 286 287 289 289 288 287 286 285 284 284 284 284 284 285 285
301 300 303 305 299 299 297 295 294 293 293 292 293 292 291 291 291 290 289 287 286 285 285 284 284 283 283 283 282 283 285 287 289 287 286 286 285 284 284 283 283 282 282 282

GFSCGP_925_thetae_111.txt.gz
Theta_e
307 305 307 309 312 316 317 318 319 319 320 321 321 321 321 321 322 322 323 323 323 323 323 322 322 321 321 322 322 322 323 326 334 336 338 340 336 335 335 336 335 334 333 333
307 306 308 310 311 313 316 317 318 319 318 316 318 319 319 320 321 322 322 322 322 322 322 323 320 320 323 324 324 325 325 325 328 333 335 339 334 333 333 334 335 334 333 331
307 306 307 310 310 311 314 316 316 316 314 314 315 317 317 317 317 318 320 320 319 319 319 319 319 323 324 324 325 326 326 327 328 332 336 335 333 332 332 332 334 334 332 331
307 307 308 308 310 311 313 313 313 313 313 316 315 319 317 318 315 317 317 317 316 316 317 319 322 323 324 325 325 328 327 327 329 332 334 333 333 332 331 332 333 333 332 331
310 308 309 309 309 311 312 313 313 313 313 314 314 316 317 316 314 315 316 316 318 320 322 322 323 323 322 322 324 327 329 329 329 331 334 332 332 332 333 333 332 331 331 329
310 310 310 310 310 311 311 310 311 311 312 315 315 314 314 313 315 315 316 318 322 322 322 322 322 321 321 322 323 325 328 329 329 330 332 333 331 334 333 333 333 330 330 330
313 315 311 311 312 312 311 313 314 314 314 316 314 313 313 314 315 317 319 321 322 322 321 321 321 321 320 321 323 323 324 328 329 330 330 332 331 334 334 334 333 331 329 329
309 312 313 313 311 312 312 312 319 319 318 315 314 315 315 314 316 319 320 321 320 320 321 321 321 322 321 321 322 322 324 325 329 329 327 330 330 332 334 332 330 329 327 328
308 310 311 313 312 313 312 312 313 315 317 320 318 316 318 316 317 320 319 318 319 319 320 321 321 321 321 320 319 320 321 324 326 328 327 328 329 331 332 332 331 328 326 326
314 309 309 309 312 311 312 312 313 314 314 315 314 316 317 317 319 319 318 318 318 319 320 321 321 319 318 317 316 318 320 324 325 327 326 327 327 330 331 330 329 327 325 325
315 315 309 308 308 309 310 312 312 312 312 313 314 315 318 318 318 319 318 319 319 320 321 320 319 317 316 315 314 315 316 324 326 326 325 325 325 328 330 329 327 325 324 324
315 317 313 312 311 311 308 310 312 312 312 312 314 320 317 318 318 317 318 319 320 322 320 319 319 317 316 313 311 310 309 321 326 325 324 323 323 327 328 327 324 324 324 324
313 316 319 319 315 311 308 308 311 312 313 315 315 313 318 318 319 319 321 323 322 320 318 317 316 315 314 312 309 306 305 308 323 323 322 322 322 326 326 325 322 322 324 323
313 315 317 320 319 314 315 311 309 311 313 313 314 321 322 319 318 321 320 318 317 316 314 313 312 311 311 309 306 303 302 306 323 322 322 323 324 325 323 322 322 321 323 322
312 315 314 314 314 315 316 316 314 314 314 315 316 317 319 321 321 317 315 314 313 312 310 310 308 307 307 305 302 300 301 304 320 322 322 321 322 322 322 321 321 321 322 322
310 315 313 312 311 313 313 312 313 312 312 312 313 313 321 319 316 314 312 312 310 308 306 305 304 303 303 301 298 297 298 299 306 320 319 319 320 321 322 321 320 320 321 321
310 312 313 312 311 311 312 312 312 312 312 313 315 318 317 316 313 309 308 306 305 303 303 301 300 299 298 297 295 296 296 297 310 319 318 318 318 320 320 320 320 320 320 320
311 311 311 313 310 312 314 314 313 312 316 316 315 316 316 313 307 303 302 303 302 300 300 297 296 295 295 294 294 294 294 296 311 313 316 318 318 318 319 319 320 320 320 320
308 311 312 313 312 311 310 317 318 318 318 316 316 315 315 309 306 303 301 301 299 297 296 294 294 292 292 291 292 293 292 292 296 298 300 303 313 318 319 319 319 319 320 320
309 309 311 313 311 313 315 311 311 313 321 313 313 312 312 312 316 306 301 299 297 295 294 293 292 291 290 289 291 292 291 290 291 292 293 295 299 305 310 313 317 318 320 318
311 312 313 311 311 313 310 311 310 318 315 310 310 310 309 307 305 301 298 296 295 292 291 291 291 290 289 289 290 290 290 289 290 291 292 292 293 294 297 301 307 310 313 311
311 312 314 313 313 314 308 311 312 307 307 307 306 305 303 302 300 298 295 295 293 292 290 290 290 289 288 288 289 290 289 289 289 289 291 290 291 291 292 294 294 295 295 295
311 310 310 314 311 305 303 303 302 304 305 304 304 302 301 301 298 296 295 293 291 289 288 288 287 288 287 288 288 289 290 289 289 288 287 287 288 288 288 290 290 290 290 289
310 307 309 308 302 301 301 300 301 301 301 301 301 301 300 299 297 295 293 291 290 288 288 286 286 286 285 286 287 288 290 290 289 288 287 286 285 285 285 285 286 287 287 286
308 307 306 306 302 301 299 298 299 298 298 298 297 297 298 298 296 295 293 291 290 288 287 286 286 285 284 284 284 286 287 289 288 287 287 286 285 284 284 283 284 283 284 284
303 301 305 305 299 301 298 297 296 295 295 295 296 295 294 294 294 294 292 290 290 289 288 286 285 285 284 284 284 284 286 287 287 287 286 285 285 284 284 283 282 282 283 283

GFSCGP_925_thetae_114.txt.gz
Theta_e
309 308 307 306 312 315 315 316 319 319 319 321 321 321 320 320 320 322 323 323 324 325 324 324 323 323 324 324 323 323 326 336 341 344 344 344 344 340 338 338 338 336 335 335
311 313 306 307 308 310 313 315 318 320 320 320 322 323 321 321 322 321 323 323 323 324 324 324 324 323 322 323 324 324 324 324 333 340 340 342 342 341 338 337 337 336 335 336
309 311 307 307 306 308 311 313 317 318 318 318 320 321 317 320 321 322 322 323 323 323 323 324 324 324 323 324 325 325 325 326 327 326 336 337 340 338 335 335 334 337 336 334
312 312 307 306 306 307 312 312 315 317 319 322 318 318 316 317 318 318 318 319 322 322 320 320 322 325 324 324 325 326 327 328 328 328 331 338 336 335 334 333 333 335 335 333
314 314 309 307 306 307 310 313 314 315 316 317 317 316 316 316 318 319 319 319 319 319 318 320 324 324 324 324 324 326 327 329 329 329 331 337 336 335 333 332 332 332 333 332
312 311 313 309 308 308 311 313 314 314 315 317 316 316 317 318 319 319 317 316 319 322 323 323 323 322 322 322 323 324 324 325 328 329 330 336 335 334 332 332 332 331 333 332
309 314 314 312 310 309 312 313 315 318 317 318 315 315 317 317 317 318 317 317 324 324 323 321 322 322 322 322 323 323 323 323 325 329 329 334 336 333 333 333 334 332 331 331
306 316 314 314 311 310 312 313 316 316 316 315 313 316 316 316 315 317 320 323 323 322 323 322 322 323 322 321 320 320 319 320 323 323 329 331 332 333 332 333 335 332 330 330
315 313 314 314 312 312 312 314 315 317 320 322 316 315 317 315 318 320 321 322 320 321 322 322 322 321 319 318 318 317 317 318 321 322 324 331 330 331 331 333 334 331 330 329
315 320 314 313 313 312 313 314 316 316 319 322 326 316 320 316 320 321 321 320 320 320 322 321 320 319 317 317 316 314 313 315 317 317 322 329 328 327 329 332 332 330 329 328
314 316 316 312 316 315 314 313 313 314 315 315 319 322 319 318 321 321 319 320 323 323 322 321 320 318 317 316 314 313 311 310 310 312 320 328 327 327 329 331 332 330 328 326
313 316 317 312 310 310 312 312 313 316 315 313 315 318 320 320 320 320 325 324 323 320 319 317 316 314 314 314 312 310 308 307 306 309 322 327 326 326 328 330 330 329 326 325
312 316 317 316 315 310 308 308 310 313 314 315 319 314 320 320 319 323 322 320 318 316 314 313 312 312 310 310 309 307 305 304 303 306 317 325 325 325 327 329 328 326 325 324
313 314 317 319 320 317 314 308 308 310 314 313 317 319 320 322 322 319 317 315 314 313 311 310 309 308 306 306 305 303 302 301 300 303 315 323 323 323 325 327 325 324 324 323
311 314 314 314 312 313 320 318 314 309 312 314 319 320 323 320 317 316 314 313 311 310 308 307 306 304 302 302 300 299 298 298 298 300 309 322 322 323 324 324 323 322 323 322
309 313 313 313 310 314 317 317 316 317 316 316 315 317 319 317 314 312 310 309 307 306 305 303 301 299 298 297 296 296 296 296 297 301 309 322 322 324 323 322 322 321 323 322
310 312 313 312 311 311 311 312 313 312 312 313 317 320 319 313 310 308 306 305 304 302 301 299 298 296 295 294 293 295 295 295 295 302 316 321 322 322 322 321 321 322 321 321
310 310 311 314 313 312 317 315 317 316 318 318 318 317 313 308 305 303 303 303 301 299 298 296 295 293 292 292 292 292 293 293 293 294 299 312 320 321 322 321 321 321 321 321
309 311 312 314 314 311 314 313 315 317 318 315 315 314 310 306 306 303 301 300 298 297 295 294 293 291 290 290 290 291 291 291 292 291 292 295 305 320 320 320 320 320 320 320
309 310 311 312 313 314 312 311 311 313 316 304 312 312 312 310 315 304 300 298 296 293 292 292 291 290 289 289 289 290 290 289 290 290 290 292 295 304 314 318 319 319 318 313
311 311 312 312 311 314 308 310 310 316 312 306 307 306 305 305 302 300 298 296 294 292 290 290 291 289 288 288 289 290 289 289 288 289 290 291 293 293 298 304 309 313 310 305
310 312 310 312 312 314 304 308 310 307 305 306 304 303 302 301 300 298 296 294 292 290 289 288 288 288 287 287 288 289 289 288 288 287 288 289 292 291 291 293 294 296 296 293
311 309 309 311 309 303 302 303 302 303 303 303 303 302 301 300 298 297 295 293 290 289 288 287 287 286 286 285 286 287 288 288 288 286 286 286 287 290 291 289 290 289 289 288
309 307 308 308 302 301 300 300 300 300 300 300 300 300 300 299 298 296 294 293 290 289 288 287 286 286 285 285 285 286 288 288 287 286 285 285 285 285 286 287 289 286 286 286
307 307 306 305 301 301 298 298 298 298 297 298 297 296 297 297 296 295 293 292 291 290 288 286 286 285 285 284 284 285 286 287 287 286 286 285 283 283 283 284 284 284 284 284
302 300 303 302 297 300 297 296 296 294 294 294 294 295 293 293 293 293 291 290 289 288 287 286 285 285 284 283 283 284 285 285 286 286 285 285 284 283 282 282 282 283 283 283

GFSCGP_925_thetae_120.txt.gz
Theta_e
305 303 304 304 303 305 306 305 304 304 304 306 307 311 313 314 314 316 316 314 314 315 316 316 318 319 320 320 319 328 336 339 341 341 341 340 342 342 342 342 341 341 340 340
306 307 306 306 305 303 303 306 308 306 304 305 307 310 312 313 314 315 315 312 314 313 314 315 316 316 318 319 319 325 336 339 341 342 341 341 339 340 341 342 342 340 340 340
307 307 305 306 306 306 305 304 305 308 304 304 314 317 315 316 314 313 313 312 312 312 314 316 316 315 318 322 329 332 338 340 341 341 342 342 341 340 339 340 340 340 340 339
305 304 304 305 306 308 308 304 305 307 305 306 316 320 314 316 317 314 313 312 312 313 315 316 316 316 320 322 327 337 341 342 342 342 341 340 339 339 341 340 339 339 339 339
306 307 309 310 310 311 309 306 305 307 305 304 312 322 318 313 316 317 312 312 313 311 315 320 319 318 317 318 319 319 320 320 323 324 330 339 340 339 339 340 339 339 338 338
305 305 306 307 309 310 311 307 308 306 306 307 309 319 316 312 315 314 312 312 313 319 321 319 317 316 314 315 315 316 316 314 315 316 319 320 326 331 335 337 336 336 336 337
310 310 311 312 313 312 311 309 309 309 311 317 315 320 318 313 311 312 314 315 318 320 319 317 316 314 313 312 312 312 313 311 311 311 311 312 314 317 324 333 336 335 334 334
312 311 311 310 313 315 313 309 307 313 318 316 316 317 312 311 312 311 314 319 320 319 317 315 314 313 312 311 309 309 309 308 309 309 309 309 310 312 314 322 332 333 334 334
313 312 310 309 311 315 309 307 306 315 318 315 312 311 310 317 318 314 320 319 318 316 314 313 312 311 309 308 307 306 306 306 306 306 307 308 308 310 311 316 327 331 333 332
311 314 312 312 314 314 312 309 315 317 320 319 322 317 322 325 324 321 318 315 313 311 310 309 307 307 306 305 304 303 302 302 302 303 303 303 304 306 311 313 319 329 332 331
310 313 313 313 316 315 314 313 315 317 318 322 324 327 323 325 323 319 315 313 311 309 307 305 304 304 303 302 301 300 300 299 299 300 300 300 302 302 306 312 318 323 330 331
309 315 315 312 312 313 314 316 316 316 321 319 319 322 320 319 318 316 314 311 309 307 304 303 301 300 299 298 298 297 297 297 297 297 298 298 299 300 303 311 321 323 328 329
308 312 313 310 311 311 313 313 314 316 316 318 319 323 317 315 313 311 310 308 306 305 303 301 299 298 297 296 295 295 295 295 295 296 297 297 298 299 302 310 323 326 328 327
307 311 313 313 312 312 314 313 314 316 317 316 319 320 318 314 308 309 307 305 304 303 300 299 297 296 295 294 294 293 294 294 294 294 295 296 297 298 300 307 318 326 326 327
305 309 310 311 312 315 316 316 315 317 318 315 320 322 315 310 309 305 302 303 302 301 299 297 296 294 294 293 292 292 292 292 292 293 294 295 295 297 299 306 316 324 325 326
304 308 310 311 312 314 315 316 313 314 315 319 317 318 311 308 306 304 302 301 300 298 297 296 294 293 292 291 291 291 291 291 291 291 292 293 294 295 298 306 316 323 324 325
305 307 308 312 311 315 312 310 311 310 309 316 318 314 307 304 302 300 299 298 298 297 295 294 293 292 290 290 290 290 290 290 290 290 290 291 292 293 296 302 317 323 323 323
306 307 308 311 310 316 312 306 309 308 307 306 309 306 304 301 299 298 296 296 295 294 293 293 292 290 289 289 289 289 290 289 289 288 288 289 290 291 294 298 308 322 322 321
306 307 307 310 311 315 308 305 307 309 308 306 306 306 304 301 300 298 295 294 293 292 291 290 290 288 288 287 287 288 288 288 287 287 287 287 288 290 292 295 300 322 321 320
308 308 307 308 312 311 306 302 303 306 308 305 303 303 304 305 305 299 294 292 291 290 289 288 288 287 286 286 286 287 287 287 287 286 285 285 286 288 291 293 299 320 320 316
308 306 306 307 310 308 302 302 302 306 307 304 303 302 300 299 298 295 293 291 289 288 288 287 286 285 285 285 286 286 287 286 286 285 284 284 285 286 289 293 294 299 305 303
307 305 306 304 305 305 300 301 303 302 299 301 301 300 299 298 296 294 291 290 288 287 287 286 285 285 285 284 285 286 286 286 286 284 283 283 284 285 287 290 292 291 292 293
309 307 304 304 304 300 298 299 298 299 299 297 296 297 298 296 294 293 291 289 288 286 285 285 284 284 284 284 285 285 285 286 286 284 283 283 284 285 285 286 290 287 288 288
305 302 303 303 300 298 296 296 296 296 296 296 296 294 296 295 293 291 290 289 287 285 284 283 283 283 283 283 284 284 284 285 285 285 284 283 283 284 284 285 286 286 286 286
302 298 300 299 298 297 295 294 293 293 293 293 293 292 292 292 290 288 287 286 285 284 283 282 281 281 281 282 283 284 284 284 285 285 284 283 283 282 284 284 285 285 285 285
298 297 296 294 293 297 294 293 292 291 292 291 291 290 289 289 288 286 284 284 283 282 281 281 280 280 281 281 282 283 284 284 284 285 284 283 282 282 282 283 283 283 284 284

GFSCGP_925_thetae_126.txt.gz
Theta_e
303 303 303 301 301 302 301 302 302 302 302 303 303 303 303 303 303 303 302 302 304 305 310 313 314 314 319 331 335 337 339 340 338 335 335 335 334 334 333 331 331 330 331 331
302 304 303 301 301 302 302 303 304 303 304 304 304 305 305 304 303 303 303 303 303 304 307 312 313 312 313 321 333 336 337 339 340 338 336 335 335 335 335 335 335 336 333 334
304 304 303 304 304 305 305 305 305 305 305 305 306 309 308 305 303 303 303 303 303 304 307 312 312 311 312 312 320 332 335 337 339 339 339 338 337 337 337 337 338 338 338 339
302 302 303 303 303 303 304 304 306 306 308 312 304 308 304 303 302 302 303 303 304 308 308 311 313 315 316 316 312 313 329 334 337 339 339 338 337 336 337 337 337 339 340 340
304 306 305 305 305 305 305 306 309 310 311 307 306 306 304 302 303 304 305 306 307 309 308 315 314 312 312 317 320 323 328 334 336 338 339 337 337 337 336 337 337 335 336 338
304 304 304 305 305 305 306 309 310 309 306 308 305 304 304 303 304 310 314 317 315 314 314 312 311 310 308 309 309 311 317 317 326 334 334 335 334 334 334 333 331 329 326 335
305 307 305 304 308 309 309 307 307 306 307 308 307 309 305 306 308 308 314 315 312 310 309 307 306 305 304 304 306 305 306 306 308 311 312 314 314 317 323 330 329 325 328 334
305 303 308 309 309 309 311 311 309 307 310 309 309 313 313 319 318 315 313 311 309 306 305 303 303 302 302 302 301 302 302 302 303 304 305 306 307 308 310 313 317 326 329 331
307 305 304 304 306 309 314 314 309 310 310 312 311 314 317 316 314 313 311 308 307 306 304 303 301 300 299 298 298 298 299 299 299 301 302 303 304 306 306 308 310 311 313 320
303 306 305 308 312 312 313 311 314 310 313 319 318 317 313 316 313 309 307 306 305 304 303 301 300 298 297 296 296 295 296 296 296 297 298 300 301 303 304 306 306 307 309 312
301 307 306 307 313 313 313 314 314 318 316 320 319 320 308 312 312 309 306 305 302 302 301 299 298 297 296 295 295 294 294 294 293 294 295 296 298 299 302 303 304 305 306 309
301 306 308 306 306 310 312 314 314 318 318 317 318 314 306 306 304 304 305 304 302 300 298 298 296 295 294 294 293 293 293 292 292 293 293 294 295 295 296 297 299 301 303 305
303 306 306 304 306 307 309 310 312 316 317 320 320 313 304 303 302 303 301 301 300 299 297 296 295 294 293 292 292 292 292 291 291 291 291 292 292 293 293 294 296 298 300 303
305 305 301 301 303 310 310 313 314 315 317 318 315 309 305 303 302 300 299 298 298 298 296 295 294 293 292 291 291 291 291 291 290 290 290 291 291 291 291 292 294 295 298 301
303 305 305 306 307 311 307 308 308 311 313 318 311 307 304 302 301 299 298 297 297 296 295 294 292 292 290 290 289 290 290 290 289 289 289 289 290 290 290 291 292 293 296 300
301 304 305 307 311 314 308 306 305 305 307 314 310 306 303 300 298 297 297 296 295 294 294 292 291 290 289 288 288 288 289 288 288 288 288 288 288 288 289 290 291 292 295 298
301 303 307 309 309 313 309 306 308 305 304 308 306 306 302 298 297 295 294 293 293 292 291 290 289 288 287 287 287 288 288 287 287 287 286 286 286 286 287 289 290 292 293 295
302 304 306 309 311 311 308 303 306 306 304 303 304 303 300 297 295 294 292 291 290 290 289 288 287 286 286 286 286 286 287 287 286 285 285 284 284 285 286 288 289 290 292 293
300 303 308 308 311 309 306 302 301 303 305 302 302 300 300 299 300 294 291 290 289 288 287 286 285 285 285 285 285 286 286 286 286 285 284 283 284 285 286 287 287 289 290 292
302 301 307 306 311 308 303 299 300 303 305 300 301 299 298 297 298 295 291 289 287 285 285 284 284 284 284 284 285 285 285 285 285 284 283 283 283 284 285 286 287 288 289 291
304 303 304 303 308 306 299 298 299 305 300 298 297 299 297 297 295 293 290 288 286 284 283 282 282 283 283 283 284 284 284 284 284 283 282 282 283 283 284 285 286 287 288 289
304 305 302 303 302 300 297 298 300 299 298 296 295 295 297 295 293 291 288 286 284 282 281 281 280 281 282 282 283 283 283 284 284 283 282 281 282 283 282 283 284 286 287 288
300 302 302 303 302 298 296 297 296 296 296 295 294 293 295 293 290 288 286 285 282 281 280 280 279 280 281 281 282 283 283 283 284 283 282 282 282 282 282 282 283 284 285 286
302 299 301 300 299 297 294 294 293 294 293 291 290 291 290 289 287 286 285 284 281 280 280 279 279 279 280 280 281 282 282 283 283 282 281 281 281 281 281 281 281 281 282 283
300 298 298 299 298 296 294 293 292 292 292 291 289 288 288 287 285 283 282 282 280 280 279 279 279 279 279 280 281 281 281 282 282 282 281 280 280 280 280 281 280 280 280 281
297 297 294 297 295 296 294 293 292 290 291 289 289 287 285 285 284 282 281 281 280 279 279 279 278 278 278 279 280 280 281 281 281 281 280 279 279 279 279 279 279 280 279 278

GFSCGP_925_thetae_132.txt.gz
Theta_e
309 309 309 308 307 307 307 307 308 308 309 310 311 311 312 313 311 311 311 312 311 311 311 309 308 309 309 309 309 312 320 335 337 336 336 335 336 336 336 336 336 337 337 339
309 310 308 307 307 307 307 309 309 309 309 310 311 313 313 312 311 311 312 313 312 311 310 310 309 308 309 309 309 310 316 333 336 337 337 336 335 334 334 334 334 335 335 335
309 309 307 307 308 308 309 309 309 310 310 312 312 312 311 311 313 315 314 315 317 316 315 313 310 309 308 309 309 310 313 328 335 336 336 335 335 334 334 334 335 336 336 336
309 307 307 308 309 308 309 309 309 311 313 315 312 315 313 313 316 313 311 310 308 310 314 315 316 312 309 308 308 309 312 324 335 336 336 335 336 334 333 334 334 335 336 336
309 307 308 311 309 308 310 310 311 312 314 314 312 313 311 315 312 308 308 305 303 305 309 314 315 316 312 307 307 309 312 320 333 337 336 336 335 334 333 334 335 336 335 336
307 306 307 309 309 309 310 311 313 312 313 314 312 310 316 312 311 307 304 303 301 302 303 305 307 313 315 315 315 315 315 320 331 338 338 337 336 337 338 339 339 337 336 335
305 307 309 308 310 311 312 315 315 315 316 313 311 312 313 309 306 307 304 303 300 299 300 301 302 303 305 309 314 317 314 312 319 330 334 339 340 340 340 340 337 336 335 333
304 308 309 309 308 313 314 314 315 317 315 316 313 314 317 307 305 303 302 301 298 297 297 298 299 299 301 300 304 305 306 306 307 310 312 317 321 327 327 329 334 334 334 335
304 304 304 304 309 313 317 317 315 317 315 316 313 315 313 306 304 303 301 299 298 296 295 296 296 297 298 298 299 299 302 302 302 304 307 308 308 311 314 315 320 324 327 328
305 307 305 305 311 313 313 313 315 317 319 317 314 315 311 306 304 302 300 298 297 295 294 294 294 294 295 297 297 298 299 299 300 301 303 304 306 307 308 309 311 312 314 315
305 307 307 307 310 310 311 313 312 313 315 318 319 314 307 305 304 302 300 298 297 295 294 293 292 291 292 294 294 296 295 295 298 299 300 301 301 302 303 305 306 306 307 308
307 308 309 306 307 309 310 310 312 316 318 316 318 314 305 304 303 301 299 297 295 295 293 292 291 291 291 292 293 293 294 294 296 297 298 298 298 299 300 301 301 301 304 306
307 309 310 309 311 310 310 308 309 312 314 319 319 315 305 302 301 299 298 296 295 294 292 291 290 290 289 290 290 291 291 291 292 293 294 294 296 297 298 298 297 299 300 301
306 308 309 310 310 310 311 308 309 310 316 315 310 308 305 302 300 299 296 296 295 293 292 291 290 290 289 288 289 289 289 289 290 291 292 293 293 293 295 295 296 297 298 299
306 308 308 308 308 310 311 308 307 309 311 313 308 305 304 301 299 298 296 295 295 293 292 291 291 290 289 288 289 289 289 290 290 289 289 290 291 293 294 294 295 296 297 297
306 309 308 310 310 311 309 307 306 305 306 307 309 306 304 300 298 297 296 294 293 292 291 291 290 289 288 288 288 288 288 289 289 289 289 289 290 290 291 292 294 295 295 295
308 308 310 309 309 312 312 306 306 305 304 305 304 303 302 300 297 295 294 293 291 290 290 289 289 288 287 287 287 288 288 289 289 289 288 288 288 289 289 290 292 292 293 294
308 308 308 310 311 315 306 303 306 304 302 302 303 302 301 299 297 295 292 291 290 289 289 288 287 287 286 286 286 287 288 288 288 289 288 288 288 288 288 288 289 290 291 292
306 308 309 311 310 310 306 303 302 305 302 300 300 300 300 299 299 297 292 290 289 288 287 286 286 286 285 285 286 286 287 287 287 286 287 287 287 287 287 287 287 289 290 291
306 307 309 308 309 310 307 301 300 301 307 298 298 299 299 299 302 297 291 289 288 287 286 286 286 285 285 284 285 285 285 285 285 284 285 286 286 286 286 286 286 287 288 290
307 307 308 307 308 307 302 301 301 309 304 298 298 297 297 297 295 292 290 289 287 286 285 285 285 285 284 284 284 284 284 284 283 283 284 284 284 285 285 286 285 285 286 288
307 307 307 305 307 308 300 301 305 299 298 296 296 295 295 293 292 291 290 288 286 284 284 284 284 284 283 283 283 283 284 283 283 283 283 284 283 284 284 284 284 284 284 285
307 306 306 305 306 300 299 298 297 296 295 294 294 294 293 292 291 289 288 287 285 283 283 282 283 283 283 283 282 283 283 283 283 284 284 283 284 283 283 283 283 284 283 283
303 302 303 303 300 299 298 296 296 295 294 292 292 292 292 291 289 289 287 286 284 283 282 282 282 282 282 282 282 282 282 283 284 284 284 283 284 283 283 283 282 282 280 281
304 302 303 302 299 297 297 296 295 293 292 291 289 289 289 289 288 287 286 285 284 283 282 282 281 281 281 281 282 282 282 282 283 284 283 283 284 283 283 283 282 280 279 278
302 302 302 304 301 299 297 294 294 293 292 291 290 289 287 286 286 285 284 283 283 282 282 281 281 280 280 280 280 280 281 282 281 282 282 282 282 282 283 282 283 282 280 278

GFSCGP_925_thetae_135.txt.gz
Theta_e
312 311 312 313 311 310 309 309 309 310 311 311 313 313 313 314 314 318 317 316 315 314 313 314 317 315 311 312 311 312 312 313 323 339 340 340 342 341 339 339 340 340 340 339
311 313 312 310 309 309 310 310 311 311 311 311 312 313 315 315 316 314 313 312 311 310 309 310 311 314 316 317 312 311 312 313 314 337 339 339 340 340 340 340 340 340 341 339
311 311 310 309 309 310 311 311 311 310 310 312 314 315 313 317 315 312 311 309 309 307 306 307 308 310 314 317 317 311 311 312 313 316 338 338 338 339 339 338 338 339 339 339
310 310 309 309 310 310 311 311 311 311 313 314 314 316 313 316 314 311 310 308 307 305 302 303 304 306 309 312 317 315 310 311 312 314 336 338 338 339 337 336 337 337 337 337
313 310 309 311 311 310 310 311 312 314 316 316 315 316 315 313 312 310 307 305 304 302 301 300 300 301 305 307 312 317 312 310 311 313 327 337 338 338 336 335 336 336 338 338
309 308 309 311 310 311 312 313 315 316 316 318 315 313 315 312 310 308 305 303 301 301 300 299 296 297 300 302 305 312 317 310 310 311 323 337 337 339 336 336 337 337 339 338
308 308 310 310 311 313 314 316 316 316 320 317 314 314 313 310 308 306 303 301 300 299 298 298 295 294 296 298 301 303 306 311 314 320 324 336 337 337 337 337 337 339 339 339
307 311 310 311 311 314 315 315 316 317 314 315 314 317 313 308 307 306 303 302 299 298 297 296 294 293 293 295 297 300 302 305 309 309 312 321 330 335 337 338 340 341 339 337
306 308 307 306 309 314 318 318 314 317 315 317 315 318 314 308 306 305 303 301 299 297 296 295 293 291 291 293 294 296 298 302 304 305 307 310 315 319 318 329 336 337 336 335
307 308 306 307 310 313 314 313 317 318 319 317 314 316 312 307 306 304 302 300 298 296 295 294 292 290 290 290 294 295 298 300 302 304 305 305 307 309 312 314 316 317 320 324
307 309 309 307 311 311 312 316 314 313 315 317 319 316 307 305 303 303 300 299 298 295 294 293 291 290 290 290 291 293 293 294 298 299 302 303 303 306 307 306 308 310 313 314
309 311 311 309 309 310 311 311 311 317 316 320 318 313 305 304 303 301 299 299 297 295 293 292 291 290 290 289 290 291 292 294 296 297 297 298 299 302 302 302 303 306 308 309
309 311 313 311 311 310 311 310 310 311 313 317 321 314 305 303 301 300 299 297 296 295 293 292 291 290 290 289 289 289 291 290 291 293 294 295 297 300 300 300 301 303 303 304
306 311 311 312 313 311 310 310 309 310 316 319 313 311 308 305 302 301 299 296 296 295 293 292 291 290 289 289 289 289 290 290 290 291 291 292 293 295 296 297 299 301 301 302
309 310 309 309 308 310 311 310 309 311 312 312 310 308 305 304 302 302 302 298 296 294 293 292 291 290 289 288 288 290 290 290 291 290 291 291 292 293 294 296 297 298 299 300
309 311 309 309 309 312 311 310 308 307 308 308 308 308 303 303 300 299 297 297 296 294 293 292 291 290 289 288 288 289 290 290 291 291 291 290 290 292 293 292 294 295 296 296
311 310 310 312 311 313 313 309 308 306 305 306 307 304 303 302 300 298 296 295 294 293 291 291 290 289 288 288 288 289 288 289 289 290 290 290 290 290 291 291 291 292 293 295
310 310 310 310 314 315 308 307 306 306 303 304 303 302 302 302 299 297 295 294 293 292 291 290 289 288 287 286 287 287 287 288 288 288 289 290 290 290 290 290 290 290 292 293
309 309 311 311 311 310 306 305 306 307 305 301 301 300 301 301 301 299 295 293 292 291 290 289 289 288 286 285 286 286 286 286 286 286 287 288 288 289 289 290 289 290 290 291
309 309 311 311 310 313 309 304 303 304 309 300 300 300 300 301 304 299 294 293 291 290 288 288 288 287 286 284 285 285 285 285 285 285 286 286 286 287 287 287 287 289 289 289
310 309 310 310 309 310 304 304 304 307 306 299 299 298 298 298 295 294 293 292 290 288 287 286 287 286 285 284 284 285 285 285 284 284 285 285 285 286 286 286 286 286 287 288
310 310 310 309 308 310 303 303 306 302 300 298 297 296 296 295 294 293 292 291 288 286 285 285 285 285 284 284 284 284 284 284 284 285 285 285 285 285 285 285 284 284 284 284
310 309 311 309 309 303 302 301 299 298 298 296 296 295 295 294 293 292 291 290 287 285 284 284 284 284 284 283 284 284 284 284 284 285 285 285 285 284 284 284 283 283 281 282
306 305 307 306 303 302 300 299 297 296 296 295 295 295 294 294 292 292 290 289 287 285 284 283 283 283 283 283 283 283 283 284 284 285 284 284 285 284 284 284 283 282 281 280
306 305 305 304 302 300 299 297 296 294 293 293 292 292 292 292 291 290 289 287 286 285 284 283 282 282 282 282 282 282 282 282 283 284 283 283 284 284 284 284 283 282 281 280
305 306 305 307 303 302 299 297 296 294 294 293 292 291 290 289 289 288 287 286 285 284 283 283 282 281 281 281 280 280 281 281 281 282 282 282 283 283 283 284 284 283 282 281

GFSCGP_925_thetae_138.txt.gz
Theta_e
312 312 311 313 313 312 310 309 309 310 311 312 312 312 312 316 315 313 312 311 310 310 308 306 304 304 306 307 309 312 317 316 313 315 325 338 339 341 340 341 342 344 345 343
312 311 313 312 310 309 310 310 311 311 312 311 311 311 316 315 313 312 310 308 307 306 306 305 303 302 302 303 306 311 310 312 318 313 314 334 337 340 340 341 341 341 344 341
311 312 312 311 310 309 310 311 311 311 310 311 311 313 317 316 313 311 308 306 304 303 303 303 302 300 299 300 302 305 307 310 319 314 313 314 335 336 338 338 341 340 343 342
311 312 311 310 309 310 311 311 311 311 311 312 313 313 313 314 312 310 307 304 303 302 301 301 300 299 297 297 299 300 303 307 311 314 313 314 320 335 336 337 340 342 342 342
311 311 310 310 310 311 310 311 311 312 312 315 316 314 315 313 311 309 306 304 301 300 299 299 297 297 296 295 296 297 299 303 308 311 314 313 315 325 334 337 339 341 341 343
309 310 309 310 311 310 311 313 315 315 316 320 317 315 314 311 309 308 305 303 300 299 298 296 295 294 294 294 293 295 298 299 303 308 313 318 315 316 331 335 337 339 341 341
309 308 308 310 311 312 313 315 316 316 321 321 315 315 313 309 308 306 304 301 299 298 297 296 294 293 293 292 292 294 295 295 301 305 310 315 319 318 322 334 336 337 339 339
310 310 310 311 311 312 315 315 315 318 315 315 313 317 311 308 306 305 303 300 298 297 296 295 293 292 291 291 291 292 293 294 296 303 307 310 314 318 323 332 335 336 337 339
309 310 310 311 308 313 317 316 316 315 315 318 315 313 311 307 305 304 302 300 298 297 296 294 293 291 291 290 290 291 292 292 295 299 304 306 310 311 313 322 332 336 337 340
308 310 309 307 307 310 312 313 313 317 318 315 314 319 315 307 305 303 302 299 297 296 295 294 292 291 290 289 289 290 290 291 292 296 300 303 303 304 305 310 317 319 335 337
308 310 308 308 308 311 315 315 315 313 313 314 317 316 308 304 303 302 300 298 297 296 294 293 292 290 290 289 289 289 289 290 291 293 296 300 301 301 302 304 307 309 313 320
309 310 312 310 311 310 311 312 311 313 313 315 317 314 305 303 302 301 299 297 296 295 294 292 292 291 290 289 289 289 290 289 290 291 295 293 296 297 297 299 303 303 305 310
309 311 313 309 309 309 311 312 310 310 311 314 318 315 306 302 301 300 300 298 296 294 293 292 291 291 290 289 289 289 290 290 290 291 292 292 293 294 295 295 300 301 302 303
308 311 313 315 316 314 314 312 310 310 313 315 314 311 307 303 302 300 299 297 296 294 293 292 292 291 289 289 289 289 289 289 290 290 290 291 292 292 292 294 296 297 299 299
310 312 310 309 308 310 310 309 310 310 310 312 312 309 305 305 303 301 297 299 297 295 293 292 292 290 289 288 288 289 289 289 290 290 290 290 291 291 291 292 293 295 295 296
309 313 309 309 309 313 311 310 309 308 308 309 310 308 304 303 301 300 298 298 296 295 294 292 291 290 288 287 288 288 288 288 288 289 289 290 290 290 291 291 291 292 294 294
311 312 309 312 312 314 313 314 310 308 306 307 309 305 303 303 301 299 297 296 295 294 293 292 291 289 287 286 287 287 287 287 287 287 288 288 289 290 289 290 291 291 292 292
310 310 310 315 314 313 309 308 308 307 304 304 304 303 303 302 300 298 296 295 294 292 291 290 290 288 286 285 286 286 286 286 286 286 287 287 288 288 288 288 289 290 291 290
310 310 312 313 313 310 308 307 306 306 306 302 302 301 301 301 301 298 295 294 293 291 289 289 289 287 286 285 285 285 285 286 286 286 286 286 287 287 287 287 287 287 289 288
308 310 311 312 311 313 309 306 305 305 308 302 301 300 300 300 304 298 294 293 291 289 288 287 287 286 285 285 285 285 285 285 285 286 286 286 286 286 285 285 285 285 285 286
311 311 312 312 311 310 306 305 305 307 306 300 299 298 298 297 296 294 293 292 289 287 286 286 286 285 284 284 284 284 284 285 285 285 285 286 285 285 285 284 284 283 283 283
310 311 311 311 310 312 304 305 307 303 300 299 298 296 296 295 294 294 293 291 288 286 285 284 284 284 284 284 283 283 283 284 284 285 285 285 285 285 285 284 283 282 281 281
312 311 313 310 309 304 303 303 301 301 299 298 297 296 295 294 294 293 292 290 287 286 285 284 283 283 283 283 282 282 283 283 283 284 284 284 284 284 285 284 283 282 281 280
308 307 310 307 305 303 301 299 299 298 297 296 296 295 295 294 293 292 291 289 287 286 285 283 283 282 282 282 281 281 282 282 283 283 283 283 283 284 284 285 283 282 281 280
307 307 307 305 303 301 300 298 297 296 295 295 294 293 293 293 291 291 289 288 287 285 284 283 282 282 281 281 280 280 281 281 282 282 282 282 282 283 283 283 283 282 280 279
306 308 307 308 304 303 300 298 296 295 294 294 293 292 291 290 290 289 287 286 285 285 284 283 281 281 280 280 279 279 280 281 281 281 281 282 282 282 282 282 283 283 282 279

GFSCGP_925_thetae_141.txt.gz
Theta_e
309 310 310 309 310 311 309 308 307 306 308 310 310 309 310 309 307 305 304 304 302 301 301 300 299 298 298 297 297 297 298 299 302 304 309 312 320 323 337 336 339 340 341 343
308 310 311 311 311 309 309 309 308 309 310 308 307 307 311 309 307 305 303 302 301 300 299 298 298 296 296 296 296 295 296 297 299 303 306 309 314 316 328 335 335 338 340 342
309 311 313 312 311 310 308 309 309 310 309 308 308 309 312 309 307 305 303 301 300 299 298 297 296 294 294 294 294 294 293 296 298 301 304 308 313 313 315 328 336 335 339 340
309 310 311 310 309 309 308 310 310 310 309 309 309 310 314 309 307 305 303 300 298 297 297 296 295 293 293 292 292 292 292 295 296 297 302 306 310 314 313 320 330 333 336 338
310 311 310 311 310 310 310 311 310 311 309 310 311 311 311 308 308 305 302 299 298 296 296 295 294 292 292 291 291 291 292 293 295 296 300 304 309 312 316 318 330 333 334 336
309 310 309 310 310 310 310 310 311 311 312 312 314 314 310 308 307 304 302 299 298 296 295 294 293 292 291 290 290 290 291 291 293 295 298 302 306 309 314 316 323 328 332 334
309 309 308 308 310 310 309 311 313 314 316 317 314 313 309 307 305 303 301 299 297 295 294 293 292 291 290 290 290 290 290 291 292 293 296 300 304 308 311 315 318 322 330 331
308 309 308 310 311 311 312 313 312 318 316 313 314 313 309 306 304 302 300 298 297 295 294 293 292 291 290 290 290 290 290 290 291 292 294 296 302 304 306 309 314 319 324 327
310 311 308 310 309 310 314 315 315 314 314 311 313 309 307 305 304 302 300 298 296 295 294 292 292 291 290 290 289 289 290 290 290 291 292 294 297 300 301 306 313 319 321 322
310 312 311 308 306 306 310 311 312 315 319 315 316 314 312 305 304 301 300 298 296 295 294 292 291 291 290 289 289 289 289 289 290 289 290 292 293 296 299 304 304 309 312 314
307 308 309 308 308 308 310 313 314 312 310 311 311 309 307 304 302 301 299 297 296 294 293 292 291 290 290 289 289 289 289 289 289 289 290 290 291 294 296 299 301 302 307 310
308 311 309 308 308 308 310 314 311 308 313 312 312 308 305 301 301 300 299 295 292 294 293 291 291 290 289 288 288 289 288 288 288 288 290 290 291 292 293 295 297 298 301 305
309 309 310 310 308 308 309 310 310 310 310 311 307 305 304 301 300 300 295 294 294 293 292 291 290 289 288 287 288 288 288 288 288 288 289 289 290 291 291 292 293 295 297 299
308 310 311 307 311 311 313 312 310 310 310 306 304 305 299 301 299 298 296 295 292 290 292 291 290 288 287 286 287 287 288 287 287 288 288 289 289 290 291 291 292 292 294 294
309 312 311 310 311 311 311 312 309 310 309 310 310 306 304 301 299 295 295 295 294 292 292 291 290 288 287 286 287 287 287 287 287 287 288 288 289 289 289 291 291 290 291 292
308 311 310 310 309 311 311 309 309 308 309 309 307 306 303 304 302 297 296 294 293 292 291 291 289 287 286 286 286 286 286 286 286 287 287 287 287 288 288 288 290 289 289 290
308 309 308 310 312 310 308 308 309 307 306 306 307 303 302 302 299 295 294 293 292 291 290 290 288 287 286 285 285 285 286 286 286 286 287 287 287 286 287 286 287 288 288 288
311 310 310 314 313 312 305 308 307 302 303 301 302 302 301 301 296 294 293 292 290 289 288 288 287 286 285 285 285 285 285 285 286 286 286 286 286 285 285 284 284 286 285 286
310 310 309 316 315 309 309 307 306 305 303 302 302 301 299 298 296 294 293 290 288 287 286 286 286 285 284 284 284 284 284 285 285 286 286 285 286 285 284 283 283 283 283 283
309 309 309 310 312 314 308 307 305 304 305 302 301 300 299 297 300 294 291 288 287 286 285 285 285 284 284 284 283 282 283 284 285 285 285 285 285 285 284 283 282 281 281 281
309 308 309 309 311 309 306 305 304 306 301 300 298 298 296 294 294 293 290 288 286 285 285 284 284 283 283 282 282 282 282 283 284 284 284 284 284 285 283 282 281 280 280 280
310 309 308 308 310 310 305 305 305 297 299 298 296 296 296 295 295 294 290 287 286 285 284 283 283 282 282 281 281 281 282 282 283 283 283 283 283 284 283 282 281 280 280 279
307 309 307 306 304 302 301 301 299 298 297 297 296 296 295 295 293 291 288 287 285 284 283 282 282 281 281 280 280 280 281 282 282 282 282 282 282 283 283 282 280 279 278 278
308 308 304 304 302 300 299 298 297 296 296 295 295 294 294 292 291 289 288 286 285 284 282 281 281 281 280 279 279 279 280 281 281 280 282 281 281 281 282 283 280 279 278 277
306 305 303 302 301 299 298 297 296 294 293 293 292 291 291 291 290 288 286 286 284 283 282 281 280 280 279 277 278 279 280 281 279 280 281 280 280 280 281 281 281 279 278 277
305 302 299 298 299 298 297 297 295 293 293 292 291 290 289 289 288 286 285 284 284 283 281 280 279 279 278 276 277 278 280 281 279 279 280 279 279 279 279 279 279 279 279 276

GFSCGP_925_thetae_144.txt.gz
Theta_e
307 308 309 308 308 310 308 308 307 306 307 308 306 309 306 304 303 302 301 300 299 298 297 296 295 294 293 292 292 291 292 292 293 296 297 299 302 305 309 314 322 331 336 338
305 308 309 309 310 309 308 308 308 308 309 307 307 309 305 304 303 301 300 299 298 297 296 295 294 293 292 291 291 291 291 291 292 294 295 297 301 305 307 312 315 325 327 336
306 308 310 310 310 310 308 308 308 308 308 308 307 311 308 305 304 302 300 298 297 296 295 295 294 292 292 291 290 290 290 291 292 293 295 297 300 303 308 311 313 322 328 335
307 308 309 310 310 308 307 308 310 309 308 308 308 309 309 307 305 302 300 297 296 295 295 294 293 292 291 290 290 290 290 291 291 292 294 295 299 301 305 306 311 313 317 324
308 310 310 310 309 308 308 310 310 310 309 309 309 309 309 307 306 303 300 298 296 294 294 293 292 291 291 290 289 289 290 290 290 291 293 294 297 299 303 306 310 312 314 322
306 307 308 309 309 309 309 309 310 310 309 311 312 311 309 307 305 303 300 298 297 294 293 292 292 291 290 290 289 289 290 290 290 291 291 293 294 296 301 303 306 312 315 318
307 307 307 307 308 309 309 309 312 313 314 315 311 312 308 305 303 301 300 298 297 295 294 292 291 291 290 290 289 289 289 290 290 290 290 292 294 294 297 300 302 305 309 316
307 308 308 307 309 310 309 309 312 316 315 313 312 311 309 304 302 301 300 298 297 295 294 291 291 290 289 289 289 289 289 289 289 290 290 290 292 292 294 297 298 303 308 315
310 309 308 308 310 309 311 312 311 313 312 310 311 308 306 304 302 302 300 298 296 295 293 291 291 290 289 288 288 288 288 289 289 289 289 290 291 291 292 293 297 301 304 309
309 311 309 307 306 306 311 311 312 313 317 316 313 311 306 304 302 301 297 295 294 294 293 291 290 289 288 287 287 288 288 288 288 288 288 289 290 290 291 292 293 297 301 306
307 310 310 307 306 306 307 311 312 312 309 311 309 306 306 303 301 300 297 292 292 294 293 291 290 288 287 286 287 287 288 287 287 287 288 288 289 289 290 291 291 294 298 302
308 309 309 307 307 306 308 312 311 310 313 310 305 300 305 300 300 299 297 294 289 291 288 291 290 287 286 285 286 286 287 287 287 287 287 288 288 288 288 289 290 291 294 298
309 311 312 310 307 308 310 309 310 309 308 309 303 301 302 301 300 299 294 293 292 290 288 287 288 286 286 285 286 286 286 286 287 287 287 287 287 287 288 288 290 290 292 294
308 311 310 312 310 308 312 309 309 309 309 305 304 302 305 301 295 296 295 293 290 287 288 286 286 286 285 285 286 286 286 286 286 287 287 287 287 287 286 287 289 289 289 290
310 311 313 311 312 312 312 310 308 308 308 309 303 305 304 299 296 291 290 291 290 289 289 287 284 286 285 285 285 285 286 286 286 287 286 287 286 286 285 285 286 286 288 287
308 311 312 310 311 309 309 309 308 308 308 308 305 305 303 303 297 295 294 291 290 289 288 289 287 285 285 285 285 285 285 286 286 286 286 286 286 285 284 284 284 284 285 285
308 309 309 310 311 308 307 306 308 307 306 307 308 304 301 301 297 293 292 291 289 288 287 288 286 285 285 284 284 284 284 285 286 286 286 286 285 284 283 283 283 283 283 283
309 309 309 312 310 311 304 307 306 303 302 302 301 300 300 296 293 291 289 288 288 287 286 286 285 284 284 283 283 282 283 284 285 285 285 285 284 284 283 282 281 281 282 282
309 308 311 313 314 309 309 306 305 306 303 301 300 299 295 293 293 291 289 287 286 285 285 285 284 283 283 282 282 282 282 283 284 284 284 284 285 283 282 281 281 281 281 281
308 308 308 309 315 314 308 307 304 302 302 301 300 298 296 296 299 292 288 286 285 285 284 284 283 283 282 281 281 281 282 282 283 282 282 282 283 282 282 281 280 280 280 280
309 307 309 309 311 308 306 305 303 304 301 299 297 295 294 293 292 288 286 285 284 284 284 282 282 281 280 280 280 280 281 282 281 282 281 282 282 283 281 280 279 278 279 279
309 309 308 308 309 310 305 304 304 297 297 296 295 294 293 293 289 288 286 285 284 283 282 282 281 280 279 279 279 279 280 281 281 281 281 281 281 281 281 279 278 277 277 278
309 307 306 306 303 300 300 301 297 296 296 295 294 294 294 292 289 288 286 285 283 282 281 281 281 279 278 278 279 278 279 280 280 280 280 280 280 280 280 278 277 277 277 277
307 305 302 302 300 299 298 296 295 295 294 294 294 293 292 290 289 287 285 285 282 281 280 280 279 277 277 278 279 279 280 279 279 279 279 279 279 279 279 279 277 276 276 276
305 303 301 300 298 297 296 295 294 293 291 291 290 291 290 288 287 286 285 283 282 280 279 279 278 277 276 277 279 279 279 279 279 279 278 278 278 278 277 277 278 275 275 276
303 301 300 299 298 296 296 293 293 292 291 290 289 288 288 287 285 284 283 282 281 280 279 278 277 276 276 277 278 279 279 278 278 278 277 277 276 276 276 276 276 276 275 275

GFSCGP_925_thetae_147.txt.gz
Theta_e
306 307 307 307 306 309 309 307 307 305 305 305 308 305 303 302 301 300 299 298 297 296 296 295 293 292 291 291 290 290 290 291 291 292 292 294 296 297 299 301 304 308 313 316
304 306 306 308 308 308 307 306 307 306 308 306 307 305 304 303 301 299 298 297 296 295 295 294 293 292 291 290 290 290 290 290 291 291 292 293 294 296 299 301 304 306 308 312
303 305 307 308 308 309 307 306 306 307 307 305 307 307 306 304 302 301 298 297 296 295 294 293 293 291 291 290 289 289 290 290 291 291 291 292 293 296 298 299 301 304 306 309
304 305 306 307 309 308 308 306 307 308 307 307 306 306 307 306 304 301 299 297 295 294 293 293 292 291 291 290 289 289 290 290 290 290 291 291 292 294 295 297 299 303 304 307
308 309 308 309 309 307 307 308 307 308 307 308 308 307 307 306 306 302 299 297 295 293 294 292 292 291 291 290 289 289 289 289 290 290 290 291 291 292 294 295 298 300 302 304
305 306 307 308 308 307 307 308 309 308 308 308 308 307 306 306 305 302 299 297 297 296 295 291 291 291 290 289 289 288 288 289 289 289 289 289 290 291 293 293 295 298 299 302
305 306 306 307 308 308 307 308 310 313 312 312 311 309 307 304 302 300 299 298 296 296 294 291 291 290 289 288 288 288 288 288 288 288 288 289 290 290 291 292 294 295 298 301
305 307 306 305 308 308 307 308 311 314 316 314 310 311 307 304 301 300 299 296 295 294 293 292 290 289 288 287 287 287 287 288 288 288 288 288 289 290 290 291 292 293 295 298
307 308 307 306 308 308 309 309 310 313 311 311 309 307 306 303 301 301 298 295 292 293 292 292 289 288 287 286 286 287 287 287 287 287 288 288 288 289 289 290 291 291 292 295
308 308 308 307 307 306 312 311 314 313 317 318 312 310 307 305 302 301 294 292 291 291 290 291 288 287 286 285 286 286 287 287 287 287 287 288 288 288 288 289 289 289 290 292
306 309 309 306 307 306 307 309 311 313 310 314 313 307 300 303 300 299 296 290 290 288 288 288 288 286 286 285 286 286 286 286 286 287 287 287 287 287 287 287 288 288 289 289
305 308 308 308 307 306 307 310 311 313 314 310 305 302 303 299 298 297 296 292 287 288 285 286 287 286 285 284 285 285 286 286 286 287 287 287 286 286 286 286 287 287 287 287
308 310 310 311 308 307 310 310 311 309 308 311 306 302 301 300 298 298 292 291 290 288 284 282 285 285 284 284 285 285 285 286 286 286 286 286 285 285 284 285 285 285 285 285
309 311 311 312 310 310 311 310 311 310 310 307 303 298 304 301 296 295 294 292 288 285 285 283 284 284 284 284 285 284 284 285 286 286 285 286 285 285 283 283 284 284 284 283
308 310 311 311 310 311 312 310 309 309 308 309 304 304 302 301 295 291 289 290 289 287 288 284 287 284 284 284 284 283 283 284 285 285 285 285 284 284 283 282 282 283 282 282
309 311 311 310 310 311 312 309 308 308 308 307 304 305 301 300 296 294 293 290 289 288 287 287 286 284 284 283 283 282 282 284 284 284 284 285 283 283 282 282 282 282 282 281
309 310 311 312 309 309 309 308 308 307 307 306 307 304 299 297 296 293 291 290 289 287 287 286 285 283 284 282 282 282 282 283 283 283 283 283 283 282 281 281 281 281 281 281
309 310 310 313 310 314 305 306 306 303 302 301 301 301 299 296 292 290 288 288 287 286 286 285 284 283 282 281 281 281 282 282 282 282 282 282 283 281 280 280 280 280 280 280
308 308 311 312 312 308 309 305 304 306 304 300 300 296 293 291 289 288 287 286 285 284 284 284 283 282 280 280 281 281 281 281 281 281 281 281 282 280 280 279 278 279 279 279
307 307 308 311 312 312 308 306 303 303 306 300 298 295 293 293 298 291 286 285 284 284 283 282 282 280 280 280 280 280 280 280 280 280 280 280 281 281 279 278 277 278 278 278
309 306 310 309 310 308 306 304 302 305 303 300 297 295 294 295 293 287 285 284 283 283 282 281 280 279 279 279 280 279 278 279 280 280 280 280 280 280 278 277 277 277 277 277
309 309 308 308 309 311 305 303 305 298 295 296 295 293 293 289 287 286 285 284 283 282 281 281 279 278 278 279 279 278 278 279 279 279 279 279 279 279 277 276 276 276 276 276
307 306 306 306 305 300 299 301 297 296 295 294 293 292 290 289 287 286 285 283 282 281 280 279 278 278 278 278 279 278 278 279 278 278 278 278 277 278 277 275 275 275 275 276
305 304 302 303 300 299 297 295 295 295 294 293 292 292 290 288 287 286 285 283 280 280 279 278 277 277 278 278 279 278 278 278 278 277 277 277 276 276 276 276 274 274 275 275
305 302 300 299 297 297 296 295 293 292 292 292 291 290 289 288 286 285 284 282 280 279 278 277 276 276 277 278 278 278 278 277 277 277 276 276 276 275 275 274 275 274 274 274
303 300 300 298 297 297 296 293 292 291 290 290 289 288 287 287 286 284 283 281 280 279 278 277 276 276 276 277 278 278 277 277 276 276 276 275 275 274 274 273 273 273 273 273

GFSCGP_925_thetae_150.txt.gz
Theta_e
305 305 305 305 304 308 308 307 306 305 305 306 306 304 303 301 300 298 298 297 296 295 294 294 293 291 291 290 289 289 290 290 291 291 291 291 292 293 294 296 299 298 300 303
303 304 305 306 306 307 308 307 306 305 306 307 305 305 303 302 300 298 297 296 295 295 294 293 292 291 291 290 289 289 289 290 290 290 291 291 292 292 294 294 295 297 298 302
302 303 305 307 308 308 308 305 305 306 306 305 305 306 304 303 301 299 297 296 295 294 293 292 292 291 290 290 289 289 289 289 290 290 290 290 291 292 293 293 294 295 296 299
303 303 304 307 308 307 308 305 306 306 306 306 305 305 306 304 302 301 298 295 294 293 293 291 291 290 290 289 288 288 289 289 289 289 289 289 290 291 292 292 293 294 295 298
307 307 307 305 305 307 308 306 305 306 305 307 306 306 305 304 304 302 298 296 295 294 293 290 290 290 289 288 287 288 288 288 288 288 288 289 289 290 291 291 292 293 294 295
305 305 306 307 308 307 307 308 309 308 307 307 307 306 304 305 305 302 299 297 295 293 292 291 289 289 288 287 287 287 288 288 288 288 288 288 288 289 290 290 291 292 293 294
304 304 304 307 308 307 307 307 310 313 312 308 309 307 305 303 302 301 299 296 294 293 291 291 288 287 286 286 287 287 287 287 287 287 287 288 288 288 289 290 290 291 291 292
305 307 304 305 307 308 307 308 310 314 315 312 310 309 307 304 301 299 297 294 293 292 290 290 288 287 285 285 286 286 287 287 287 287 287 287 287 288 288 288 289 289 289 290
305 306 305 305 306 307 307 309 308 312 310 311 309 307 304 302 301 299 296 293 291 290 290 288 287 286 285 285 286 286 286 286 286 286 287 287 287 286 287 287 287 288 288 289
305 307 307 307 307 306 308 308 312 312 317 317 311 310 307 305 302 300 293 292 290 290 289 287 286 285 285 284 285 285 286 286 286 286 286 287 287 286 285 286 286 286 286 287
304 306 306 306 307 306 309 310 311 311 313 316 313 308 300 304 302 300 295 291 289 286 285 284 285 284 284 284 284 285 285 286 286 286 286 286 285 285 284 284 285 285 285 284
304 306 306 306 307 307 306 310 312 314 314 310 311 305 302 301 299 297 295 292 287 287 282 284 284 284 284 284 284 284 284 284 285 286 285 285 284 284 283 283 283 283 283 283
306 309 308 307 307 307 309 308 310 309 310 312 310 308 301 299 298 297 293 291 289 287 283 280 284 283 283 283 283 283 283 284 284 284 285 284 283 283 283 282 282 282 282 282
309 308 309 310 309 309 310 310 311 312 313 312 307 302 303 300 298 297 294 291 286 284 284 281 286 283 284 282 282 282 282 283 283 284 284 284 283 282 282 282 281 281 281 281
309 310 310 310 309 311 312 312 311 311 310 310 309 304 303 301 299 293 289 289 289 287 287 283 283 283 284 282 282 282 282 282 283 283 283 283 282 281 281 281 281 280 281 280
309 310 310 310 311 311 313 311 310 309 308 307 305 306 301 299 295 293 292 290 289 287 287 286 284 284 283 281 281 281 281 282 282 282 282 282 282 281 280 279 280 280 280 280
309 310 310 312 310 312 313 310 310 308 308 307 308 306 300 298 296 294 291 290 289 288 286 286 283 283 281 280 281 281 281 281 281 282 282 282 282 280 279 278 278 279 279 279
309 310 311 313 310 313 305 305 307 308 305 303 302 301 300 296 292 290 288 288 288 286 286 285 282 281 280 280 280 280 280 280 280 280 281 280 281 279 278 278 278 278 278 278
308 310 312 314 314 309 309 306 306 307 307 301 300 296 292 290 289 288 287 286 284 284 283 282 282 280 280 280 280 280 279 279 279 279 279 279 280 278 277 277 277 277 278 277
308 309 310 312 312 314 308 306 303 304 308 300 297 294 292 292 296 291 286 284 283 283 282 281 280 279 279 279 279 279 278 278 278 278 278 278 279 277 276 276 276 276 276 276
310 309 311 310 312 309 306 304 302 309 306 299 296 294 292 295 293 287 285 283 283 282 281 280 279 278 279 279 278 277 278 278 278 278 278 278 278 278 275 275 275 275 275 275
309 310 310 309 311 311 304 302 306 300 296 296 294 293 293 288 287 286 284 283 282 281 280 279 278 278 278 278 278 277 278 278 277 277 277 277 277 276 275 274 274 274 274 274
308 308 307 308 307 300 298 301 296 296 295 294 293 291 289 288 287 285 284 282 281 280 279 278 278 278 278 278 278 276 278 278 276 277 276 276 275 275 275 274 274 274 274 273
305 303 303 303 301 299 298 295 295 294 293 292 291 289 288 287 286 284 283 281 279 279 278 277 277 278 278 278 277 277 277 277 276 275 275 275 275 274 274 274 273 273 274 273
304 302 301 299 298 297 296 295 293 292 292 291 289 289 287 286 285 284 282 280 279 278 277 277 277 278 278 278 278 277 277 276 276 275 275 274 274 273 273 272 273 273 273 273
301 300 301 302 299 299 297 293 292 292 291 290 289 288 287 286 284 283 281 280 279 278 277 276 277 277 277 277 278 278 277 276 276 275 274 274 274 273 273 273 272 271 272 272